Wetterdaten: Mittwoch, 24.10.2018
Datum Zeit Temp. Aussen Temp. o. S. +5cm Feuchte Auss Luftdruck Regen Sonnenschein Regendauer Solar Windben Empfang
24.10.2018 00:00 12,4 C 11,7 C 11,1 C 92 % 1020,6 hPa 0,0 l/m 0 min 0 min 0 W/m 16,1 km/h (3 Bft) 95,74 %
24.10.2018 00:02 12,4 C 11,7 C 11,1 C 91 % 1020,5 hPa 0,0 l/m 0 min 0 min 0 W/m 9,7 km/h (2 Bft) 92,31 %
24.10.2018 00:04 12,4 C 11,7 C 11,7 C 91 % 1020,6 hPa 0,0 l/m 0 min 0 min 0 W/m 12,9 km/h (3 Bft) 97,87 %
24.10.2018 00:08 12,4 C 11,7 C 11,7 C 91 % 1020,6 hPa 0,0 l/m 0 min 0 min 0 W/m 6,4 km/h (2 Bft) 94,68 %
24.10.2018 00:10 12,4 C 12,2 C 11,7 C 91 % 1020,6 hPa 0,0 l/m 0 min 0 min 0 W/m 9,7 km/h (2 Bft) 93,62 %
24.10.2018 00:12 12,4 C 12,2 C 11,7 C 91 % 1020,5 hPa 0,0 l/m 0 min 0 min 0 W/m 6,4 km/h (2 Bft) 95,74 %
24.10.2018 00:14 12,4 C 12,2 C 11,7 C 91 % 1020,5 hPa 0,0 l/m 0 min 0 min 0 W/m 9,7 km/h (2 Bft) 95,65 %
24.10.2018 00:16 12,4 C 12,2 C 11,7 C 92 % 1020,5 hPa 0,0 l/m 0 min 0 min 0 W/m 12,9 km/h (3 Bft) 95,92 %
24.10.2018 00:18 12,4 C 12,2 C 11,7 C 91 % 1020,4 hPa 0,0 l/m 0 min 0 min 0 W/m 16,1 km/h (3 Bft) 95,74 %
24.10.2018 00:20 12,4 C 12,2 C 11,7 C 91 % 1020,4 hPa 0,0 l/m 0 min 0 min 0 W/m 12,9 km/h (3 Bft) 95,74 %
24.10.2018 00:22 12,4 C 12,2 C 11,7 C 91 % 1020,4 hPa 0,0 l/m 0 min 0 min 0 W/m 12,9 km/h (3 Bft) 97,87 %
24.10.2018 00:24 12,5 C 12,2 C 11,7 C 91 % 1020,3 hPa 0,0 l/m 0 min 0 min 0 W/m 9,7 km/h (2 Bft) 97,87 %
24.10.2018 00:26 12,5 C 12,2 C 11,7 C 91 % 1020,2 hPa 0,0 l/m 0 min 0 min 0 W/m 16,1 km/h (3 Bft) 95,65 %
24.10.2018 00:28 12,5 C 12,2 C 11,7 C 91 % 1020,1 hPa 0,0 l/m 0 min 0 min 0 W/m 16,1 km/h (3 Bft) 97,87 %
24.10.2018 00:30 12,5 C 12,2 C 11,7 C 91 % 1020,2 hPa 0,0 l/m 0 min 0 min 0 W/m 16,1 km/h (3 Bft) 97,87 %
24.10.2018 00:32 12,6 C 12,2 C 11,7 C 91 % 1020,0 hPa 0,0 l/m 0 min 0 min 0 W/m 16,1 km/h (3 Bft) 95,74 %
24.10.2018 00:34 12,6 C 12,2 C 11,7 C 91 % 1020,1 hPa 0,0 l/m 0 min 0 min 0 W/m 9,7 km/h (2 Bft) 97,87 %
24.10.2018 00:38 12,6 C 12,2 C 11,7 C 91 % 1020,0 hPa 0,0 l/m 0 min 0 min 0 W/m 16,1 km/h (3 Bft) 96,77 %
24.10.2018 00:40 12,7 C 12,2 C 11,7 C 91 % 1020,0 hPa 0,0 l/m 0 min 0 min 0 W/m 9,7 km/h (2 Bft) 97,87 %
24.10.2018 00:42 12,7 C 12,2 C 11,7 C 91 % 1020,1 hPa 0,0 l/m 0 min 0 min 0 W/m 16,1 km/h (3 Bft) 97,87 %
24.10.2018 00:44 12,7 C 12,2 C 11,7 C 91 % 1019,9 hPa 0,0 l/m 0 min 0 min 0 W/m 19,3 km/h (3 Bft) 95,74 %
24.10.2018 00:46 12,7 C 12,2 C 11,7 C 91 % 1020,1 hPa 0,0 l/m 0 min 0 min 0 W/m 16,1 km/h (3 Bft) 97,92 %
24.10.2018 00:48 12,7 C 12,2 C 11,7 C 91 % 1020,1 hPa 0,0 l/m 0 min 0 min 0 W/m 12,9 km/h (3 Bft) 97,83 %
24.10.2018 00:50 12,7 C 12,2 C 11,7 C 91 % 1020,2 hPa 0,0 l/m 0 min 0 min 0 W/m 16,1 km/h (3 Bft) 97,87 %
24.10.2018 00:52 12,8 C 12,2 C 11,7 C 90 % 1020,3 hPa 0,0 l/m 0 min 0 min 0 W/m 9,7 km/h (2 Bft) 97,87 %
24.10.2018 00:54 12,8 C 12,2 C 11,7 C 90 % 1020,3 hPa 0,0 l/m 0 min 0 min 0 W/m 19,3 km/h (3 Bft) 95,74 %
24.10.2018 00:56 12,8 C 12,2 C 11,7 C 90 % 1020,3 hPa 0,0 l/m 0 min 0 min 0 W/m 16,1 km/h (3 Bft) 97,87 %
24.10.2018 00:58 12,8 C 12,8 C 11,7 C 90 % 1020,3 hPa 0,0 l/m 0 min 0 min 0 W/m 16,1 km/h (3 Bft) 97,87 %
24.10.2018 01:00 12,9 C 12,2 C 12,2 C 90 % 1020,2 hPa 0,0 l/m 0 min 0 min 0 W/m 16,1 km/h (3 Bft) 100,00 %
24.10.2018 01:02 12,9 C 12,2 C 12,2 C 90 % 1020,3 hPa 0,0 l/m 0 min 0 min 0 W/m 16,1 km/h (3 Bft) 100,00 %
24.10.2018 01:04 12,9 C 12,2 C 12,2 C 90 % 1020,1 hPa 0,0 l/m 0 min 0 min 0 W/m 16,1 km/h (3 Bft) 100,00 %
24.10.2018 01:08 12,9 C 12,8 C 12,2 C 90 % 1020,1 hPa 0,0 l/m 0 min 0 min 0 W/m 16,1 km/h (3 Bft) 98,94 %
24.10.2018 01:10 12,9 C 12,8 C 12,2 C 90 % 1019,9 hPa 0,0 l/m 0 min 0 min 0 W/m 12,9 km/h (3 Bft) 100,00 %
24.10.2018 01:12 12,9 C 12,8 C 12,2 C 90 % 1019,9 hPa 0,0 l/m 0 min 0 min 0 W/m 12,9 km/h (3 Bft) 100,00 %
24.10.2018 01:14 13,0 C 12,2 C 12,2 C 90 % 1019,8 hPa 0,0 l/m 0 min 0 min 0 W/m 12,9 km/h (3 Bft) 100,00 %
24.10.2018 01:16 13,0 C 12,2 C 12,2 C 90 % 1019,8 hPa 0,0 l/m 0 min 0 min 0 W/m 12,9 km/h (3 Bft) 97,92 %
24.10.2018 01:18 13,0 C 12,2 C 11,7 C 90 % 1019,8 hPa 0,0 l/m 0 min 0 min 0 W/m 19,3 km/h (3 Bft) 97,87 %
24.10.2018 01:20 13,0 C 12,2 C 12,2 C 90 % 1019,7 hPa 0,0 l/m 0 min 0 min 0 W/m 16,1 km/h (3 Bft) 100,00 %
24.10.2018 01:22 13,1 C 12,8 C 12,2 C 90 % 1019,8 hPa 0,0 l/m 0 min 0 min 0 W/m 19,3 km/h (3 Bft) 100,00 %
24.10.2018 01:24 13,1 C 12,8 C 12,2 C 90 % 1019,9 hPa 0,0 l/m 0 min 0 min 0 W/m 12,9 km/h (3 Bft) 100,00 %
24.10.2018 01:26 13,1 C 12,8 C 12,2 C 90 % 1019,7 hPa 0,0 l/m 0 min 0 min 0 W/m 16,1 km/h (3 Bft) 100,00 %
24.10.2018 01:28 13,1 C 12,8 C 12,2 C 90 % 1019,6 hPa 0,0 l/m 0 min 0 min 0 W/m 12,9 km/h (3 Bft) 100,00 %
24.10.2018 01:30 13,1 C 12,8 C 12,2 C 90 % 1019,6 hPa 0,0 l/m 0 min 0 min 0 W/m 22,5 km/h (4 Bft) 100,00 %
24.10.2018 01:32 13,1 C 12,8 C 12,2 C 90 % 1019,6 hPa 0,0 l/m 0 min 0 min 0 W/m 16,1 km/h (3 Bft) 97,87 %
24.10.2018 01:34 13,2 C 12,8 C 12,2 C 90 % 1019,6 hPa 0,0 l/m 0 min 0 min 0 W/m 16,1 km/h (3 Bft) 97,83 %
24.10.2018 01:38 13,2 C 12,8 C 12,2 C 90 % 1019,9 hPa 0,0 l/m 0 min 0 min 0 W/m 25,7 km/h (4 Bft) 100,00 %
24.10.2018 01:40 13,2 C 12,8 C 12,2 C 90 % 1019,8 hPa 0,0 l/m 0 min 0 min 0 W/m 25,7 km/h (4 Bft) 100,00 %
24.10.2018 01:42 13,2 C 12,8 C 12,2 C 90 % 1019,8 hPa 0,0 l/m 0 min 0 min 0 W/m 12,9 km/h (3 Bft) 100,00 %
24.10.2018 01:44 13,2 C 12,8 C 12,2 C 90 % 1020,0 hPa 0,0 l/m 0 min 0 min 0 W/m 19,3 km/h (3 Bft) 100,00 %
24.10.2018 01:46 13,2 C 12,8 C 12,2 C 90 % 1019,9 hPa 0,0 l/m 0 min 0 min 0 W/m 16,1 km/h (3 Bft) 100,00 %
24.10.2018 01:48 13,2 C 12,8 C 12,2 C 90 % 1019,8 hPa 0,0 l/m 0 min 0 min 0 W/m 19,3 km/h (3 Bft) 100,00 %
24.10.2018 01:50 13,2 C 12,8 C 12,2 C 90 % 1019,9 hPa 0,0 l/m 0 min 0 min 0 W/m 29,0 km/h (5 Bft) 100,00 %
24.10.2018 01:52 13,2 C 12,8 C 12,2 C 90 % 1019,8 hPa 0,0 l/m 0 min 0 min 0 W/m 16,1 km/h (3 Bft) 95,83 %
24.10.2018 01:54 13,3 C 12,8 C 12,2 C 90 % 1019,9 hPa 0,0 l/m 0 min 0 min 0 W/m 29,0 km/h (5 Bft) 97,87 %
24.10.2018 01:56 13,3 C 12,8 C 12,2 C 90 % 1020,0 hPa 0,0 l/m 0 min 0 min 0 W/m 16,1 km/h (3 Bft) 97,87 %
24.10.2018 01:58 13,3 C 12,8 C 12,2 C 90 % 1019,9 hPa 0,0 l/m 0 min 0 min 0 W/m 19,3 km/h (3 Bft) 97,83 %
24.10.2018 02:00 13,3 C 12,8 C 12,2 C 90 % 1019,8 hPa 0,0 l/m 0 min 0 min 0 W/m 9,7 km/h (2 Bft) 97,87 %
24.10.2018 02:02 13,3 C 12,8 C 12,2 C 90 % 1019,7 hPa 0,0 l/m 0 min 0 min 0 W/m 16,1 km/h (3 Bft) 95,74 %
24.10.2018 02:04 13,3 C 12,8 C 12,2 C 90 % 1019,8 hPa 0,0 l/m 0 min 0 min 0 W/m 12,9 km/h (3 Bft) 95,74 %
24.10.2018 02:08 13,3 C 12,8 C 12,2 C 90 % 1019,9 hPa 0,0 l/m 0 min 0 min 0 W/m 16,1 km/h (3 Bft) 97,87 %
24.10.2018 02:10 13,3 C 12,8 C 12,2 C 90 % 1019,8 hPa 0,0 l/m 0 min 0 min 0 W/m 19,3 km/h (3 Bft) 97,83 %
24.10.2018 02:12 13,3 C 12,8 C 12,2 C 90 % 1019,7 hPa 0,0 l/m 0 min 0 min 0 W/m 16,1 km/h (3 Bft) 95,74 %
24.10.2018 02:14 13,3 C 12,8 C 12,2 C 90 % 1019,6 hPa 0,0 l/m 0 min 0 min 0 W/m 16,1 km/h (3 Bft) 97,87 %
24.10.2018 02:16 13,3 C 12,8 C 12,2 C 90 % 1019,5 hPa 0,0 l/m 0 min 0 min 0 W/m 16,1 km/h (3 Bft) 97,62 %
24.10.2018 02:18 13,3 C 12,8 C 12,2 C 90 % 1019,4 hPa 0,0 l/m 0 min 0 min 0 W/m 19,3 km/h (3 Bft) 97,87 %
24.10.2018 02:20 13,3 C 12,8 C 12,2 C 90 % 1019,4 hPa 0,0 l/m 0 min 0 min 0 W/m 12,9 km/h (3 Bft) 97,87 %
24.10.2018 02:22 13,3 C 12,8 C 12,2 C 90 % 1019,4 hPa 0,0 l/m 0 min 0 min 0 W/m 19,3 km/h (3 Bft) 97,83 %
24.10.2018 02:24 13,4 C 12,8 C 12,2 C 90 % 1019,5 hPa 0,0 l/m 0 min 0 min 0 W/m 16,1 km/h (3 Bft) 97,87 %
24.10.2018 02:26 13,3 C 12,8 C 12,2 C 90 % 1019,5 hPa 0,0 l/m 0 min 0 min 0 W/m 12,9 km/h (3 Bft) 97,87 %
24.10.2018 02:28 13,4 C 12,8 C 12,2 C 90 % 1019,6 hPa 0,0 l/m 0 min 0 min 0 W/m 25,7 km/h (4 Bft) 95,74 %
24.10.2018 02:30 13,4 C 12,8 C 12,2 C 90 % 1019,6 hPa 0,0 l/m 0 min 0 min 0 W/m 9,7 km/h (2 Bft) 97,87 %
24.10.2018 02:32 13,4 C 12,8 C 12,2 C 90 % 1019,7 hPa 0,0 l/m 0 min 0 min 0 W/m 25,7 km/h (4 Bft) 97,87 %
24.10.2018 02:34 13,4 C 12,8 C 12,2 C 90 % 1019,8 hPa 0,0 l/m 0 min 0 min 0 W/m 16,1 km/h (3 Bft) 97,83 %
24.10.2018 02:38 13,4 C 12,8 C 12,2 C 90 % 1020,0 hPa 0,0 l/m 0 min 0 min 0 W/m 16,1 km/h (3 Bft) 98,94 %
24.10.2018 02:40 13,4 C 12,8 C 12,2 C 90 % 1019,9 hPa 0,0 l/m 0 min 0 min 0 W/m 22,5 km/h (4 Bft) 97,87 %
24.10.2018 02:42 13,4 C 12,8 C 12,2 C 90 % 1019,9 hPa 0,0 l/m 0 min 0 min 0 W/m 16,1 km/h (3 Bft) 97,87 %
24.10.2018 02:44 13,4 C 12,8 C 12,2 C 90 % 1019,8 hPa 0,0 l/m 0 min 0 min 0 W/m 22,5 km/h (4 Bft) 100,00 %
24.10.2018 02:46 13,4 C 12,8 C 12,2 C 90 % 1019,8 hPa 0,0 l/m 0 min 0 min 0 W/m 19,3 km/h (3 Bft) 100,00 %
24.10.2018 02:48 13,4 C 12,8 C 12,2 C 90 % 1019,8 hPa 0,0 l/m 0 min 0 min 0 W/m 12,9 km/h (3 Bft) 97,87 %
24.10.2018 02:50 13,4 C 12,8 C 12,2 C 90 % 1019,8 hPa 0,0 l/m 0 min 0 min 0 W/m 25,7 km/h (4 Bft) 95,74 %
24.10.2018 02:52 13,4 C 12,8 C 12,2 C 90 % 1019,8 hPa 0,0 l/m 0 min 0 min 0 W/m 19,3 km/h (3 Bft) 97,87 %
24.10.2018 02:54 13,4 C 12,8 C 12,2 C 90 % 1019,7 hPa 0,0 l/m 0 min 0 min 0 W/m 12,9 km/h (3 Bft) 97,14 %
24.10.2018 02:56 13,4 C 12,8 C 12,2 C 90 % 1019,7 hPa 0,0 l/m 0 min 0 min 0 W/m 19,3 km/h (3 Bft) 95,74 %
24.10.2018 02:58 13,4 C 12,8 C 12,2 C 90 % 1019,7 hPa 0,0 l/m 0 min 0 min 0 W/m 25,7 km/h (4 Bft) 95,74 %
24.10.2018 03:00 13,4 C 12,8 C 12,2 C 90 % 1019,7 hPa 0,0 l/m 0 min 0 min 0 W/m 16,1 km/h (3 Bft) 97,83 %
24.10.2018 03:02 13,4 C 12,8 C 12,2 C 90 % 1019,7 hPa 0,0 l/m 0 min 0 min 0 W/m 16,1 km/h (3 Bft) 97,96 %
24.10.2018 03:04 13,4 C 12,8 C 12,2 C 90 % 1019,7 hPa 0,0 l/m 0 min 0 min 0 W/m 19,3 km/h (3 Bft) 97,87 %
24.10.2018 03:08 13,4 C 12,8 C 12,2 C 90 % 1019,5 hPa 0,0 l/m 0 min 0 min 0 W/m 19,3 km/h (3 Bft) 94,34 %
24.10.2018 03:10 13,4 C 12,8 C 12,2 C 90 % 1019,5 hPa 0,0 l/m 0 min 0 min 0 W/m 22,5 km/h (4 Bft) 97,06 %
24.10.2018 03:12 13,4 C 12,8 C 12,2 C 90 % 1019,5 hPa 0,0 l/m 0 min 0 min 0 W/m 38,6 km/h (5 Bft) 95,74 %
24.10.2018 03:14 13,4 C 12,8 C 12,2 C 90 % 1019,5 hPa 0,0 l/m 0 min 0 min 0 W/m 25,7 km/h (4 Bft) 95,74 %
24.10.2018 03:16 13,4 C 12,8 C 12,2 C 90 % 1019,6 hPa 0,0 l/m 0 min 0 min 0 W/m 16,1 km/h (3 Bft) 95,83 %
24.10.2018 03:18 13,4 C 12,8 C 12,2 C 90 % 1019,5 hPa 0,0 l/m 0 min 0 min 0 W/m 16,1 km/h (3 Bft) 95,74 %
24.10.2018 03:20 13,4 C 12,8 C 12,2 C 91 % 1019,5 hPa 0,0 l/m 0 min 0 min 0 W/m 16,1 km/h (3 Bft) 94,83 %
24.10.2018 03:22 13,4 C 12,2 C 12,2 C 91 % 1019,5 hPa 0,0 l/m 0 min 0 min 0 W/m 19,3 km/h (3 Bft) 91,49 %
24.10.2018 03:24 13,4 C 12,2 C 12,2 C 91 % 1019,5 hPa 0,0 l/m 0 min 0 min 0 W/m 19,3 km/h (3 Bft) 95,74 %
24.10.2018 03:26 13,4 C 12,2 C 12,2 C 91 % 1019,5 hPa 0,0 l/m 0 min 0 min 0 W/m 41,8 km/h (6 Bft) 94,29 %
24.10.2018 03:28 13,4 C 12,2 C 12,2 C 91 % 1019,5 hPa 0,0 l/m 0 min 0 min 0 W/m 19,3 km/h (3 Bft) 95,74 %
24.10.2018 03:30 13,4 C 12,8 C 12,2 C 91 % 1019,4 hPa 0,0 l/m 0 min 0 min 0 W/m 19,3 km/h (3 Bft) 95,74 %
24.10.2018 03:32 13,4 C 12,8 C 12,2 C 91 % 1019,5 hPa 0,0 l/m 0 min 0 min 0 W/m 22,5 km/h (4 Bft) 95,74 %
24.10.2018 03:34 13,4 C 12,8 C 12,2 C 91 % 1019,5 hPa 0,0 l/m 0 min 0 min 0 W/m 22,5 km/h (4 Bft) 95,65 %
24.10.2018 03:38 13,4 C 12,8 C 12,2 C 91 % 1019,4 hPa 0,0 l/m 0 min 0 min 0 W/m 19,3 km/h (3 Bft) 95,79 %
24.10.2018 03:40 13,4 C 12,8 C 12,2 C 91 % 1019,4 hPa 0,0 l/m 0 min 0 min 0 W/m 16,1 km/h (3 Bft) 93,62 %
24.10.2018 03:42 13,4 C 12,8 C 12,2 C 92 % 1019,4 hPa 0,0 l/m 0 min 0 min 0 W/m 19,3 km/h (3 Bft) 95,74 %
24.10.2018 03:44 13,4 C 12,8 C 12,2 C 92 % 1019,4 hPa 0,0 l/m 0 min 0 min 0 W/m 16,1 km/h (3 Bft) 95,74 %
24.10.2018 03:46 13,4 C 12,8 C 12,2 C 92 % 1019,4 hPa 0,0 l/m 0 min 0 min 0 W/m 16,1 km/h (3 Bft) 95,65 %
24.10.2018 03:48 13,4 C 12,8 C 12,2 C 92 % 1019,2 hPa 0,0 l/m 0 min 0 min 0 W/m 19,3 km/h (3 Bft) 95,74 %
24.10.2018 03:50 13,4 C 12,8 C 12,2 C 92 % 1019,3 hPa 0,0 l/m 0 min 0 min 0 W/m 16,1 km/h (3 Bft) 93,22 %
24.10.2018 03:52 13,4 C 12,8 C 12,2 C 92 % 1019,4 hPa 0,0 l/m 0 min 0 min 0 W/m 22,5 km/h (4 Bft) 100,00 %
24.10.2018 03:54 13,4 C 12,8 C 12,2 C 92 % 1019,4 hPa 0,0 l/m 0 min 0 min 0 W/m 22,5 km/h (4 Bft) 95,74 %
24.10.2018 03:56 13,4 C 12,8 C 12,2 C 92 % 1019,4 hPa 0,0 l/m 0 min 0 min 0 W/m 19,3 km/h (3 Bft) 97,87 %
24.10.2018 03:58 13,4 C 12,8 C 12,2 C 92 % 1019,3 hPa 0,0 l/m 0 min 0 min 0 W/m 19,3 km/h (3 Bft) 97,83 %
24.10.2018 04:00 13,4 C 12,8 C 12,2 C 92 % 1019,4 hPa 0,0 l/m 0 min 0 min 0 W/m 12,9 km/h (3 Bft) 95,74 %
24.10.2018 04:05 13,4 C 12,8 C 12,2 C 91 % 1019,4 hPa 0,0 l/m 0 min 0 min 0 W/m 19,3 km/h (3 Bft) 100,00 %
24.10.2018 04:06 13,4 C 12,8 C 12,2 C 91 % 1019,4 hPa 0,0 l/m 0 min 0 min 0 W/m 9,7 km/h (2 Bft) 100,00 %
24.10.2018 04:08 13,4 C 12,8 C 12,2 C 91 % 1019,2 hPa 0,0 l/m 0 min 0 min 0 W/m 16,1 km/h (3 Bft) 100,00 %
24.10.2018 04:10 13,4 C 12,8 C 12,2 C 91 % 1019,2 hPa 0,0 l/m 0 min 0 min 0 W/m 25,7 km/h (4 Bft) 100,00 %
24.10.2018 04:12 13,5 C 12,8 C 12,2 C 91 % 1019,3 hPa 0,0 l/m 0 min 0 min 0 W/m 25,7 km/h (4 Bft) 100,00 %
24.10.2018 04:14 13,5 C 12,8 C 12,8 C 91 % 1019,3 hPa 0,0 l/m 0 min 0 min 0 W/m 19,3 km/h (3 Bft) 100,00 %
24.10.2018 04:16 13,5 C 12,8 C 12,8 C 91 % 1019,4 hPa 0,0 l/m 0 min 0 min 0 W/m 25,7 km/h (4 Bft) 97,87 %
24.10.2018 04:18 13,5 C 12,8 C 12,8 C 91 % 1019,3 hPa 0,0 l/m 0 min 0 min 0 W/m 25,7 km/h (4 Bft) 100,00 %
24.10.2018 04:20 13,6 C 12,8 C 12,2 C 91 % 1019,3 hPa 0,0 l/m 0 min 0 min 0 W/m 29,0 km/h (5 Bft) 100,00 %
24.10.2018 04:22 13,6 C 13,3 C 12,8 C 91 % 1019,4 hPa 0,0 l/m 0 min 0 min 0 W/m 19,3 km/h (3 Bft) 100,00 %
24.10.2018 04:24 13,6 C 13,3 C 12,2 C 91 % 1019,4 hPa 0,0 l/m 0 min 0 min 0 W/m 19,3 km/h (3 Bft) 100,00 %
24.10.2018 04:26 13,6 C 13,3 C 12,8 C 91 % 1019,4 hPa 0,0 l/m 0 min 0 min 0 W/m 19,3 km/h (3 Bft) 100,00 %
24.10.2018 04:28 13,6 C 13,3 C 12,8 C 91 % 1019,5 hPa 0,0 l/m 0 min 0 min 0 W/m 22,5 km/h (4 Bft) 97,87 %
24.10.2018 04:30 13,6 C 13,3 C 12,8 C 91 % 1019,4 hPa 0,0 l/m 0 min 0 min 0 W/m 35,4 km/h (5 Bft) 100,00 %
24.10.2018 04:32 13,6 C 13,3 C 12,8 C 91 % 1019,4 hPa 0,0 l/m 0 min 0 min 0 W/m 16,1 km/h (3 Bft) 100,00 %
24.10.2018 04:34 13,6 C 13,3 C 12,8 C 91 % 1019,4 hPa 0,0 l/m 0 min 0 min 0 W/m 25,7 km/h (4 Bft) 97,87 %
24.10.2018 04:38 13,7 C 13,3 C 12,8 C 91 % 1019,5 hPa 0,0 l/m 0 min 0 min 0 W/m 25,7 km/h (4 Bft) 97,87 %
24.10.2018 04:40 13,7 C 13,3 C 12,8 C 91 % 1019,4 hPa 0,0 l/m 0 min 0 min 0 W/m 19,3 km/h (3 Bft) 100,00 %
24.10.2018 04:42 13,7 C 13,3 C 12,8 C 91 % 1019,3 hPa 0,0 l/m 0 min 0 min 0 W/m 16,1 km/h (3 Bft) 97,87 %
24.10.2018 04:44 13,7 C 13,3 C 12,8 C 91 % 1019,3 hPa 0,0 l/m 0 min 0 min 0 W/m 16,1 km/h (3 Bft) 97,83 %
24.10.2018 04:46 13,7 C 13,3 C 12,8 C 91 % 1019,3 hPa 0,0 l/m 0 min 0 min 0 W/m 19,3 km/h (3 Bft) 96,00 %
24.10.2018 04:48 13,7 C 13,3 C 12,8 C 91 % 1019,3 hPa 0,0 l/m 0 min 0 min 0 W/m 19,3 km/h (3 Bft) 97,87 %
24.10.2018 04:50 13,7 C 13,3 C 12,8 C 91 % 1019,3 hPa 0,0 l/m 0 min 0 min 0 W/m 16,1 km/h (3 Bft) 97,87 %
24.10.2018 04:52 13,7 C 13,3 C 12,8 C 91 % 1019,3 hPa 0,0 l/m 0 min 0 min 0 W/m 16,1 km/h (3 Bft) 97,87 %
24.10.2018 04:54 13,7 C 13,3 C 12,8 C 91 % 1019,4 hPa 0,0 l/m 0 min 0 min 0 W/m 22,5 km/h (4 Bft) 97,96 %
24.10.2018 04:56 13,7 C 13,3 C 12,8 C 91 % 1019,4 hPa 0,0 l/m 0 min 0 min 0 W/m 25,7 km/h (4 Bft) 97,87 %
24.10.2018 04:58 13,7 C 12,8 C 12,8 C 91 % 1019,4 hPa 0,0 l/m 0 min 0 min 0 W/m 12,9 km/h (3 Bft) 97,87 %
24.10.2018 05:00 13,7 C 12,8 C 12,2 C 91 % 1019,4 hPa 0,0 l/m 0 min 0 min 0 W/m 22,5 km/h (4 Bft) 97,87 %
24.10.2018 05:02 13,7 C 12,8 C 12,2 C 91 % 1019,4 hPa 0,0 l/m 0 min 0 min 0 W/m 12,9 km/h (3 Bft) 95,74 %
24.10.2018 05:04 13,7 C 12,8 C 12,2 C 91 % 1019,5 hPa 0,0 l/m 0 min 0 min 0 W/m 12,9 km/h (3 Bft) 97,87 %
24.10.2018 05:05 13,7 C 12,8 C 12,2 C 91 % 1019,5 hPa 0,0 l/m 0 min 0 min 0 W/m 12,9 km/h (3 Bft) 100,00 %
24.10.2018 05:12 13,7 C 12,8 C 12,2 C 91 % 1019,6 hPa 0,0 l/m 0 min 0 min 0 W/m 22,5 km/h (4 Bft) 92,86 %
24.10.2018 05:14 13,7 C 12,2 C 12,2 C 92 % 1019,5 hPa 0,0 l/m 0 min 2 min 0 W/m 16,1 km/h (3 Bft) 97,83 %
24.10.2018 05:16 13,7 C 12,2 C 11,7 C 92 % 1019,5 hPa 0,0 l/m 0 min 2 min 0 W/m 12,9 km/h (3 Bft) 97,87 %
24.10.2018 05:18 13,7 C 12,2 C 11,7 C 92 % 1019,5 hPa 0,0 l/m 0 min 2 min 0 W/m 16,1 km/h (3 Bft) 100,00 %
24.10.2018 05:20 13,6 C 12,2 C 11,7 C 92 % 1019,5 hPa 0,0 l/m 0 min 2 min 0 W/m 12,9 km/h (3 Bft) 97,87 %
24.10.2018 05:22 13,6 C 12,2 C 11,7 C 92 % 1019,4 hPa 0,0 l/m 0 min 2 min 0 W/m 9,7 km/h (2 Bft) 100,00 %
24.10.2018 05:24 13,6 C 12,2 C 11,7 C 92 % 1019,4 hPa 0,0 l/m 0 min 0 min 0 W/m 9,7 km/h (2 Bft) 100,00 %
24.10.2018 05:26 13,6 C 12,2 C 11,7 C 92 % 1019,5 hPa 0,0 l/m 0 min 0 min 0 W/m 12,9 km/h (3 Bft) 100,00 %
24.10.2018 05:28 13,5 C 12,2 C 11,7 C 93 % 1019,6 hPa 0,0 l/m 0 min 0 min 0 W/m 16,1 km/h (3 Bft) 100,00 %
24.10.2018 05:30 13,5 C 12,2 C 11,7 C 93 % 1019,5 hPa 0,0 l/m 0 min 0 min 0 W/m 16,1 km/h (3 Bft) 97,87 %
24.10.2018 05:32 13,4 C 11,7 C 11,7 C 93 % 1019,6 hPa 0,0 l/m 0 min 0 min 0 W/m 19,3 km/h (3 Bft) 100,00 %
24.10.2018 05:34 13,4 C 12,2 C 11,7 C 93 % 1019,5 hPa 0,0 l/m 0 min 0 min 0 W/m 19,3 km/h (3 Bft) 100,00 %
24.10.2018 05:38 13,4 C 11,7 C 11,7 C 93 % 1019,5 hPa 0,0 l/m 0 min 0 min 0 W/m 16,1 km/h (3 Bft) 98,94 %
24.10.2018 05:40 13,3 C 11,7 C 11,7 C 93 % 1019,6 hPa 0,0 l/m 0 min 0 min 0 W/m 19,3 km/h (3 Bft) 100,00 %
24.10.2018 05:42 13,3 C 11,7 C 11,7 C 93 % 1019,5 hPa 0,0 l/m 0 min 2 min 0 W/m 9,7 km/h (2 Bft) 100,00 %
24.10.2018 05:44 13,3 C 11,7 C 11,7 C 93 % 1019,5 hPa 0,0 l/m 0 min 2 min 0 W/m 29,0 km/h (5 Bft) 100,00 %
24.10.2018 05:46 13,3 C 11,7 C 11,7 C 94 % 1019,4 hPa 0,2 l/m 0 min 0 min 0 W/m 12,9 km/h (3 Bft) 100,00 %
24.10.2018 05:48 13,3 C 11,7 C 11,7 C 94 % 1019,4 hPa 0,0 l/m 0 min 0 min 0 W/m 12,9 km/h (3 Bft) 100,00 %
24.10.2018 05:50 13,3 C 11,7 C 11,7 C 94 % 1019,5 hPa 0,0 l/m 0 min 0 min 0 W/m 12,9 km/h (3 Bft) 100,00 %
24.10.2018 05:52 13,2 C 11,7 C 11,7 C 94 % 1019,4 hPa 0,0 l/m 0 min 0 min 0 W/m 12,9 km/h (3 Bft) 100,00 %
24.10.2018 05:54 13,2 C 11,7 C 11,7 C 94 % 1019,5 hPa 0,0 l/m 0 min 0 min 0 W/m 9,7 km/h (2 Bft) 97,83 %
24.10.2018 05:56 13,2 C 11,7 C 11,7 C 94 % 1019,5 hPa 0,0 l/m 0 min 0 min 0 W/m 19,3 km/h (3 Bft) 97,87 %
24.10.2018 05:58 13,2 C 11,7 C 11,7 C 94 % 1019,4 hPa 0,0 l/m 0 min 0 min 0 W/m 9,7 km/h (2 Bft) 100,00 %
24.10.2018 06:00 13,2 C 11,7 C 11,7 C 94 % 1019,4 hPa 0,0 l/m 0 min 0 min 0 W/m 9,7 km/h (2 Bft) 97,87 %
24.10.2018 06:02 13,2 C 11,7 C 11,7 C 94 % 1019,3 hPa 0,0 l/m 0 min 0 min 0 W/m 12,9 km/h (3 Bft) 100,00 %
24.10.2018 06:04 13,2 C 11,7 C 11,7 C 94 % 1019,2 hPa 0,0 l/m 0 min 0 min 0 W/m 12,9 km/h (3 Bft) 97,87 %
24.10.2018 06:08 13,2 C 11,7 C 11,7 C 95 % 1019,3 hPa 0,0 l/m 0 min 0 min 0 W/m 12,9 km/h (3 Bft) 98,94 %
24.10.2018 06:10 13,2 C 11,7 C 11,7 C 95 % 1019,3 hPa 0,0 l/m 0 min 0 min 0 W/m 9,7 km/h (2 Bft) 97,87 %
24.10.2018 06:12 13,1 C 11,7 C 11,7 C 95 % 1019,4 hPa 0,0 l/m 0 min 0 min 0 W/m 9,7 km/h (2 Bft) 97,87 %
24.10.2018 06:14 13,1 C 11,7 C 11,7 C 95 % 1019,5 hPa 0,0 l/m 0 min 0 min 0 W/m 12,9 km/h (3 Bft) 97,83 %
24.10.2018 06:16 13,1 C 11,7 C 11,7 C 95 % 1019,4 hPa 0,0 l/m 0 min 0 min 0 W/m 9,7 km/h (2 Bft) 97,87 %
24.10.2018 06:18 13,1 C 12,2 C 11,7 C 95 % 1019,4 hPa 0,0 l/m 0 min 0 min 0 W/m 9,7 km/h (2 Bft) 97,87 %
24.10.2018 06:20 13,1 C 12,2 C 11,7 C 95 % 1019,4 hPa 0,0 l/m 0 min 0 min 0 W/m 9,7 km/h (2 Bft) 97,87 %
24.10.2018 06:22 13,1 C 12,2 C 11,7 C 95 % 1019,5 hPa 0,0 l/m 0 min 0 min 0 W/m 12,9 km/h (3 Bft) 93,62 %
24.10.2018 06:24 13,1 C 12,2 C 11,7 C 95 % 1019,5 hPa 0,0 l/m 0 min 0 min 0 W/m 19,3 km/h (3 Bft) 95,74 %
24.10.2018 06:26 13,1 C 12,2 C 11,7 C 95 % 1019,5 hPa 0,0 l/m 0 min 0 min 0 W/m 9,7 km/h (2 Bft) 95,65 %
24.10.2018 06:28 13,1 C 12,2 C 11,7 C 95 % 1019,5 hPa 0,0 l/m 0 min 0 min 0 W/m 16,1 km/h (3 Bft) 95,74 %
24.10.2018 06:30 13,1 C 12,2 C 11,7 C 95 % 1019,4 hPa 0,0 l/m 0 min 0 min 0 W/m 9,7 km/h (2 Bft) 95,74 %
24.10.2018 06:32 13,1 C 12,2 C 11,7 C 96 % 1019,6 hPa 0,0 l/m 0 min 0 min 0 W/m 16,1 km/h (3 Bft) 93,62 %
24.10.2018 06:34 13,1 C 12,2 C 11,7 C 96 % 1019,5 hPa 0,0 l/m 0 min 0 min 0 W/m 16,1 km/h (3 Bft) 93,62 %
24.10.2018 06:38 13,1 C 12,2 C 11,7 C 96 % 1019,5 hPa 0,0 l/m 0 min 4 min 0 W/m 12,9 km/h (3 Bft) 94,68 %
24.10.2018 06:40 13,1 C 12,2 C 11,7 C 96 % 1019,5 hPa 0,0 l/m 0 min 2 min 0 W/m 16,1 km/h (3 Bft) 95,74 %
24.10.2018 06:42 13,1 C 12,2 C 11,7 C 96 % 1019,5 hPa 0,0 l/m 0 min 2 min 0 W/m 16,1 km/h (3 Bft) 95,74 %
24.10.2018 06:44 13,1 C 12,2 C 11,7 C 96 % 1019,6 hPa 0,0 l/m 0 min 2 min 0 W/m 6,4 km/h (2 Bft) 97,87 %
24.10.2018 06:46 13,1 C 12,2 C 11,7 C 96 % 1019,6 hPa 0,0 l/m 0 min 0 min 0 W/m 16,1 km/h (3 Bft) 95,74 %
24.10.2018 06:48 13,1 C 12,2 C 11,7 C 96 % 1019,6 hPa 0,0 l/m 0 min 0 min 0 W/m 12,9 km/h (3 Bft) 95,65 %
24.10.2018 06:50 13,1 C 12,2 C 11,7 C 96 % 1019,6 hPa 0,0 l/m 0 min 0 min 0 W/m 9,7 km/h (2 Bft) 93,62 %
24.10.2018 06:52 13,1 C 12,2 C 11,7 C 96 % 1019,6 hPa 0,2 l/m 0 min 0 min 0 W/m 12,9 km/h (3 Bft) 95,74 %
24.10.2018 06:54 13,1 C 12,2 C 11,7 C 96 % 1019,6 hPa 0,0 l/m 0 min 0 min 0 W/m 12,9 km/h (3 Bft) 95,74 %
24.10.2018 06:56 13,1 C 12,2 C 11,7 C 96 % 1019,7 hPa 0,0 l/m 0 min 0 min 0 W/m 12,9 km/h (3 Bft) 95,74 %
24.10.2018 06:58 13,1 C 12,2 C 11,7 C 96 % 1019,7 hPa 0,0 l/m 0 min 0 min 0 W/m 19,3 km/h (3 Bft) 95,74 %
24.10.2018 07:00 13,1 C 12,2 C 11,7 C 96 % 1019,7 hPa 0,0 l/m 0 min 0 min 0 W/m 12,9 km/h (3 Bft) 95,65 %
24.10.2018 07:02 13,1 C 12,2 C 11,7 C 96 % 1019,6 hPa 0,0 l/m 0 min 0 min 0 W/m 16,1 km/h (3 Bft) 95,74 %
24.10.2018 07:04 13,1 C 12,2 C 11,7 C 96 % 1019,7 hPa 0,0 l/m 0 min 0 min 0 W/m 12,9 km/h (3 Bft) 97,62 %
24.10.2018 07:08 13,2 C 12,2 C 11,7 C 96 % 1019,5 hPa 0,0 l/m 0 min 4 min 0 W/m 19,3 km/h (3 Bft) 97,00 %
24.10.2018 07:10 13,1 C 12,2 C 11,7 C 96 % 1019,5 hPa 0,0 l/m 0 min 0 min 0 W/m 16,1 km/h (3 Bft) 97,87 %
24.10.2018 07:12 13,1 C 12,2 C 11,7 C 96 % 1019,5 hPa 0,0 l/m 0 min 0 min 0 W/m 12,9 km/h (3 Bft) 97,83 %
24.10.2018 07:14 13,1 C 12,2 C 11,7 C 96 % 1019,4 hPa 0,0 l/m 0 min 0 min 0 W/m 12,9 km/h (3 Bft) 95,74 %
24.10.2018 07:16 13,1 C 12,2 C 11,7 C 96 % 1019,4 hPa 0,0 l/m 0 min 0 min 0 W/m 16,1 km/h (3 Bft) 95,74 %
24.10.2018 07:18 13,1 C 12,2 C 11,7 C 96 % 1019,4 hPa 0,0 l/m 0 min 0 min 0 W/m 16,1 km/h (3 Bft) 95,74 %
24.10.2018 07:20 13,1 C 12,2 C 11,7 C 97 % 1019,5 hPa 0,0 l/m 0 min 0 min 0 W/m 12,9 km/h (3 Bft) 95,74 %
24.10.2018 07:22 13,2 C 12,2 C 11,7 C 97 % 1019,5 hPa 0,0 l/m 0 min 0 min 0 W/m 9,7 km/h (2 Bft) 95,74 %
24.10.2018 07:24 13,2 C 12,2 C 11,7 C 97 % 1019,5 hPa 0,0 l/m 0 min 0 min 0 W/m 12,9 km/h (3 Bft) 95,65 %
24.10.2018 07:26 13,2 C 12,2 C 11,7 C 97 % 1019,5 hPa 0,0 l/m 0 min 0 min 0 W/m 9,7 km/h (2 Bft) 97,87 %
24.10.2018 07:28 13,2 C 12,2 C 11,7 C 97 % 1019,5 hPa 0,0 l/m 0 min 0 min 0 W/m 16,1 km/h (3 Bft) 95,74 %
24.10.2018 07:30 13,2 C 12,2 C 11,7 C 97 % 1019,5 hPa 0,0 l/m 0 min 0 min 0 W/m 9,7 km/h (2 Bft) 97,87 %
24.10.2018 07:32 13,2 C 12,2 C 11,7 C 97 % 1019,5 hPa 0,0 l/m 0 min 0 min 0 W/m 16,1 km/h (3 Bft) 97,87 %
24.10.2018 07:34 13,2 C 12,2 C 11,7 C 97 % 1019,6 hPa 0,0 l/m 0 min 0 min 0 W/m 16,1 km/h (3 Bft) 95,65 %
24.10.2018 07:38 13,2 C 12,2 C 11,7 C 97 % 1019,6 hPa 0,0 l/m 0 min 0 min 0 W/m 9,7 km/h (2 Bft) 97,87 %
24.10.2018 07:40 13,2 C 12,2 C 11,7 C 97 % 1019,6 hPa 0,0 l/m 0 min 0 min 0 W/m 9,7 km/h (2 Bft) 95,74 %
24.10.2018 07:42 13,2 C 12,2 C 11,7 C 97 % 1019,5 hPa 0,0 l/m 0 min 0 min 0 W/m 19,3 km/h (3 Bft) 97,87 %
24.10.2018 07:44 13,2 C 12,2 C 11,7 C 97 % 1019,5 hPa 0,0 l/m 0 min 0 min 0 W/m 19,3 km/h (3 Bft) 95,74 %
24.10.2018 07:46 13,2 C 12,2 C 11,7 C 97 % 1019,5 hPa 0,0 l/m 0 min 0 min 0 W/m 12,9 km/h (3 Bft) 95,65 %
24.10.2018 07:48 13,2 C 12,2 C 11,7 C 97 % 1019,5 hPa 0,0 l/m 0 min 0 min 0 W/m 9,7 km/h (2 Bft) 95,74 %
24.10.2018 07:50 13,2 C 12,2 C 11,7 C 97 % 1019,6 hPa 0,0 l/m 0 min 0 min 0 W/m 12,9 km/h (3 Bft) 97,87 %
24.10.2018 07:52 13,2 C 12,2 C 11,7 C 97 % 1019,6 hPa 0,0 l/m 0 min 2 min 0 W/m 16,1 km/h (3 Bft) 97,87 %
24.10.2018 07:54 13,2 C 12,2 C 11,7 C 97 % 1019,5 hPa 0,0 l/m 0 min 0 min 0 W/m 9,7 km/h (2 Bft) 97,87 %
24.10.2018 07:56 13,2 C 12,2 C 11,7 C 97 % 1019,5 hPa 0,0 l/m 0 min 0 min 0 W/m 16,1 km/h (3 Bft) 97,87 %
24.10.2018 07:58 13,2 C 12,2 C 11,7 C 97 % 1019,5 hPa 0,0 l/m 0 min 0 min 0 W/m 6,4 km/h (2 Bft) 95,65 %
24.10.2018 08:00 13,2 C 12,2 C 11,7 C 97 % 1019,6 hPa 0,0 l/m 0 min 0 min 0 W/m 22,5 km/h (4 Bft) 100,00 %
24.10.2018 08:02 13,2 C 12,2 C 11,7 C 97 % 1019,6 hPa 0,0 l/m 0 min 0 min 0 W/m 19,3 km/h (3 Bft) 97,67 %
24.10.2018 08:04 13,2 C 12,2 C 11,7 C 97 % 1019,6 hPa 0,0 l/m 0 min 0 min 0 W/m 12,9 km/h (3 Bft) 97,87 %
24.10.2018 08:08 13,2 C 12,2 C 11,7 C 97 % 1019,6 hPa 0,0 l/m 0 min 0 min 0 W/m 19,3 km/h (3 Bft) 100,00 %
24.10.2018 08:10 13,2 C 12,2 C 11,7 C 97 % 1019,6 hPa 0,0 l/m 0 min 0 min 0 W/m 12,9 km/h (3 Bft) 97,87 %
24.10.2018 08:12 13,2 C 12,2 C 11,7 C 97 % 1019,7 hPa 0,0 l/m 0 min 0 min 0 W/m 9,7 km/h (2 Bft) 95,74 %
24.10.2018 08:14 13,2 C 12,2 C 11,7 C 97 % 1019,6 hPa 0,0 l/m 0 min 0 min 0 W/m 12,9 km/h (3 Bft) 100,00 %
24.10.2018 08:16 13,2 C 12,2 C 11,7 C 97 % 1019,8 hPa 0,0 l/m 0 min 0 min 0 W/m 16,1 km/h (3 Bft) 97,92 %
24.10.2018 08:18 13,2 C 12,2 C 11,7 C 97 % 1019,8 hPa 0,0 l/m 0 min 0 min 0 W/m 12,9 km/h (3 Bft) 100,00 %
24.10.2018 08:20 13,3 C 12,2 C 12,2 C 97 % 1019,8 hPa 0,0 l/m 0 min 0 min 0 W/m 16,1 km/h (3 Bft) 100,00 %
24.10.2018 08:22 13,3 C 12,2 C 11,7 C 97 % 1019,8 hPa 0,0 l/m 0 min 0 min 0 W/m 16,1 km/h (3 Bft) 97,87 %
24.10.2018 08:24 13,3 C 12,2 C 11,7 C 97 % 1019,9 hPa 0,0 l/m 0 min 0 min 2 W/m 9,7 km/h (2 Bft) 100,00 %
24.10.2018 08:26 13,3 C 12,2 C 12,2 C 97 % 1019,8 hPa 0,0 l/m 0 min 0 min 1 W/m 22,5 km/h (4 Bft) 100,00 %
24.10.2018 08:28 13,3 C 12,2 C 12,2 C 97 % 1019,8 hPa 0,0 l/m 0 min 0 min 2 W/m 19,3 km/h (3 Bft) 100,00 %
24.10.2018 08:30 13,3 C 12,2 C 12,2 C 97 % 1019,9 hPa 0,0 l/m 0 min 2 min 0 W/m 16,1 km/h (3 Bft) 97,87 %
24.10.2018 08:32 13,3 C 12,2 C 12,2 C 97 % 1019,9 hPa 0,0 l/m 0 min 2 min 5 W/m 12,9 km/h (3 Bft) 100,00 %
24.10.2018 08:34 13,3 C 12,2 C 12,2 C 97 % 1019,9 hPa 0,0 l/m 0 min 0 min 5 W/m 16,1 km/h (3 Bft) 100,00 %
24.10.2018 08:38 13,3 C 12,2 C 12,2 C 97 % 1020,0 hPa 0,0 l/m 0 min 4 min 5 W/m 9,7 km/h (2 Bft) 100,00 %
24.10.2018 08:40 13,3 C 12,2 C 12,2 C 97 % 1020,0 hPa 0,2 l/m 0 min 2 min 5 W/m 12,9 km/h (3 Bft) 97,87 %
24.10.2018 08:42 13,3 C 12,2 C 12,2 C 97 % 1020,0 hPa 0,0 l/m 0 min 2 min 6 W/m 12,9 km/h (3 Bft) 97,87 %
24.10.2018 08:44 13,3 C 12,2 C 12,2 C 98 % 1020,1 hPa 0,0 l/m 0 min 2 min 10 W/m 9,7 km/h (2 Bft) 100,00 %
24.10.2018 08:46 13,3 C 12,2 C 12,2 C 98 % 1020,1 hPa 0,0 l/m 0 min 0 min 11 W/m 12,9 km/h (3 Bft) 100,00 %
24.10.2018 08:48 13,3 C 12,2 C 12,2 C 98 % 1020,1 hPa 0,0 l/m 0 min 0 min 9 W/m 9,7 km/h (2 Bft) 100,00 %
24.10.2018 08:50 13,3 C 12,2 C 12,2 C 98 % 1020,1 hPa 0,0 l/m 0 min 0 min 12 W/m 12,9 km/h (3 Bft) 100,00 %
24.10.2018 08:58 13,3 C 12,2 C 12,2 C 98 % 1020,3 hPa 0,0 l/m 0 min 0 min 16 W/m 16,1 km/h (3 Bft) 98,35 %
24.10.2018 09:03 13,3 C 12,2 C 12,2 C 98 % 1020,4 hPa 0,0 l/m 0 min 0 min 17 W/m 25,7 km/h (4 Bft) 100,00 %
24.10.2018 09:04 13,3 C 12,2 C 12,2 C 98 % 1020,4 hPa 0,0 l/m 0 min 0 min 16 W/m 12,9 km/h (3 Bft) 100,00 %
24.10.2018 09:05 13,3 C 12,2 C 12,2 C 98 % 1020,3 hPa 0,0 l/m 0 min 0 min 16 W/m 25,7 km/h (4 Bft) 100,00 %
24.10.2018 09:10 13,3 C 12,2 C 12,2 C 98 % 1020,4 hPa 0,0 l/m 0 min 0 min 11 W/m 12,9 km/h (3 Bft) 92,73 %
24.10.2018 09:12 13,3 C 12,2 C 12,2 C 98 % 1020,4 hPa 0,0 l/m 0 min 0 min 11 W/m 22,5 km/h (4 Bft) 98,48 %
24.10.2018 09:17 13,3 C 12,2 C 12,2 C 98 % 1020,4 hPa 0,0 l/m 0 min 0 min 15 W/m 16,1 km/h (3 Bft) 98,65 %
24.10.2018 09:18 13,4 C 12,2 C 12,2 C 98 % 1020,4 hPa 0,0 l/m 0 min 0 min 18 W/m 16,1 km/h (3 Bft) 100,00 %
24.10.2018 09:20 13,4 C 12,2 C 12,2 C 98 % 1020,4 hPa 0,0 l/m 0 min 2 min 22 W/m 19,3 km/h (3 Bft) 96,61 %
24.10.2018 09:22 13,4 C 12,2 C 12,2 C 98 % 1020,6 hPa 0,0 l/m 0 min 0 min 27 W/m 19,3 km/h (3 Bft) 97,14 %
24.10.2018 09:24 13,4 C 12,2 C 12,2 C 98 % 1020,5 hPa 0,0 l/m 0 min 0 min 33 W/m 16,1 km/h (3 Bft) 95,74 %
24.10.2018 09:26 13,4 C 12,8 C 12,2 C 98 % 1020,6 hPa 0,0 l/m 0 min 0 min 34 W/m 16,1 km/h (3 Bft) 97,83 %
24.10.2018 09:28 13,4 C 12,8 C 12,2 C 98 % 1020,7 hPa 0,0 l/m 0 min 0 min 34 W/m 25,7 km/h (4 Bft) 97,87 %
24.10.2018 09:30 13,4 C 12,8 C 12,2 C 98 % 1020,8 hPa 0,0 l/m 0 min 0 min 41 W/m 25,7 km/h (4 Bft) 97,87 %
24.10.2018 09:32 13,4 C 12,8 C 12,2 C 98 % 1020,7 hPa 0,0 l/m 0 min 0 min 40 W/m 19,3 km/h (3 Bft) 97,87 %
24.10.2018 09:34 13,4 C 12,8 C 12,2 C 98 % 1020,7 hPa 0,0 l/m 0 min 0 min 37 W/m 29,0 km/h (5 Bft) 97,87 %
24.10.2018 09:38 13,4 C 12,8 C 12,2 C 98 % 1020,9 hPa 0,0 l/m 0 min 0 min 33 W/m 25,7 km/h (4 Bft) 96,77 %
24.10.2018 09:40 13,4 C 12,8 C 12,2 C 98 % 1021,0 hPa 0,0 l/m 0 min 0 min 32 W/m 19,3 km/h (3 Bft) 97,87 %
24.10.2018 09:42 13,4 C 12,8 C 12,2 C 98 % 1020,8 hPa 0,0 l/m 0 min 0 min 37 W/m 22,5 km/h (4 Bft) 100,00 %
24.10.2018 09:44 13,4 C 12,8 C 12,2 C 98 % 1020,9 hPa 0,0 l/m 0 min 0 min 40 W/m 16,1 km/h (3 Bft) 97,87 %
24.10.2018 09:46 13,5 C 12,8 C 12,2 C 98 % 1020,9 hPa 0,0 l/m 0 min 0 min 40 W/m 9,7 km/h (2 Bft) 97,62 %
24.10.2018 09:48 13,5 C 12,8 C 12,2 C 98 % 1021,0 hPa 0,0 l/m 0 min 0 min 41 W/m 22,5 km/h (4 Bft) 97,87 %
24.10.2018 09:50 13,5 C 12,8 C 12,2 C 98 % 1021,0 hPa 0,0 l/m 0 min 0 min 41 W/m 12,9 km/h (3 Bft) 96,55 %
24.10.2018 09:52 13,5 C 12,8 C 12,2 C 98 % 1021,0 hPa 0,0 l/m 0 min 0 min 47 W/m 19,3 km/h (3 Bft) 94,29 %
24.10.2018 09:54 13,5 C 12,8 C 12,2 C 98 % 1021,0 hPa 0,0 l/m 0 min 0 min 55 W/m 16,1 km/h (3 Bft) 95,74 %
24.10.2018 09:56 13,6 C 12,8 C 12,2 C 98 % 1021,0 hPa 0,0 l/m 0 min 0 min 62 W/m 9,7 km/h (2 Bft) 93,62 %
24.10.2018 09:58 13,6 C 12,8 C 12,2 C 98 % 1021,0 hPa 0,0 l/m 0 min 0 min 59 W/m 19,3 km/h (3 Bft) 93,62 %
24.10.2018 10:00 13,6 C 12,8 C 12,2 C 98 % 1021,0 hPa 0,0 l/m 0 min 0 min 56 W/m 19,3 km/h (3 Bft) 91,30 %
24.10.2018 10:02 13,6 C 12,8 C 12,2 C 98 % 1021,1 hPa 0,0 l/m 0 min 0 min 59 W/m 12,9 km/h (3 Bft) 91,84 %
24.10.2018 10:04 13,6 C 12,8 C 12,8 C 98 % 1021,1 hPa 0,0 l/m 0 min 0 min 60 W/m 16,1 km/h (3 Bft) 93,88 %
24.10.2018 10:08 13,6 C 12,8 C 12,8 C 98 % 1021,1 hPa 0,0 l/m 0 min 0 min 49 W/m 22,5 km/h (4 Bft) 94,68 %
24.10.2018 10:10 13,6 C 12,8 C 12,8 C 98 % 1021,0 hPa 0,0 l/m 0 min 0 min 41 W/m 16,1 km/h (3 Bft) 95,74 %
24.10.2018 10:12 13,6 C 12,8 C 12,8 C 98 % 1021,1 hPa 0,0 l/m 0 min 0 min 31 W/m 19,3 km/h (3 Bft) 93,48 %
24.10.2018 10:14 13,6 C 12,8 C 12,8 C 98 % 1021,1 hPa 0,0 l/m 0 min 0 min 49 W/m 16,1 km/h (3 Bft) 93,62 %
24.10.2018 10:16 13,7 C 12,8 C 12,8 C 98 % 1021,2 hPa 0,0 l/m 0 min 0 min 68 W/m 16,1 km/h (3 Bft) 95,83 %
24.10.2018 10:18 13,7 C 12,8 C 12,8 C 98 % 1021,2 hPa 0,0 l/m 0 min 0 min 69 W/m 16,1 km/h (3 Bft) 93,62 %
24.10.2018 10:20 13,7 C 12,8 C 12,8 C 98 % 1021,2 hPa 0,0 l/m 0 min 0 min 70 W/m 9,7 km/h (2 Bft) 95,74 %
24.10.2018 10:22 13,7 C 12,8 C 12,8 C 98 % 1021,2 hPa 0,0 l/m 0 min 0 min 52 W/m 9,7 km/h (2 Bft) 95,65 %
24.10.2018 10:24 13,7 C 12,8 C 12,8 C 98 % 1021,3 hPa 0,0 l/m 0 min 0 min 67 W/m 9,7 km/h (2 Bft) 95,74 %
24.10.2018 10:26 13,7 C 12,8 C 12,8 C 98 % 1021,4 hPa 0,0 l/m 0 min 0 min 63 W/m 16,1 km/h (3 Bft) 95,74 %
24.10.2018 10:28 13,7 C 12,8 C 12,8 C 98 % 1021,3 hPa 0,0 l/m 0 min 0 min 61 W/m 16,1 km/h (3 Bft) 95,74 %
24.10.2018 10:30 13,7 C 12,8 C 12,8 C 98 % 1021,4 hPa 0,0 l/m 0 min 0 min 45 W/m 0,0 km/h (0 Bft) 94,55 %
24.10.2018 10:32 13,7 C 12,8 C 12,8 C 98 % 1021,4 hPa 0,0 l/m 0 min 0 min 43 W/m 29,0 km/h (5 Bft) 94,74 %
24.10.2018 10:34 13,7 C 12,8 C 12,8 C 98 % 1021,5 hPa 0,0 l/m 0 min 0 min 55 W/m 22,5 km/h (4 Bft) 95,74 %
24.10.2018 10:38 13,7 C 12,8 C 12,8 C 98 % 1021,5 hPa 0,0 l/m 0 min 0 min 53 W/m 22,5 km/h (4 Bft) 93,55 %
24.10.2018 10:40 13,7 C 12,8 C 12,8 C 98 % 1021,5 hPa 0,0 l/m 0 min 0 min 54 W/m 9,7 km/h (2 Bft) 97,87 %
24.10.2018 10:42 13,7 C 12,8 C 12,8 C 98 % 1021,6 hPa 0,0 l/m 0 min 0 min 50 W/m 12,9 km/h (3 Bft) 95,74 %
24.10.2018 10:44 13,7 C 12,8 C 12,8 C 98 % 1021,5 hPa 0,0 l/m 0 min 0 min 44 W/m 12,9 km/h (3 Bft) 95,74 %
24.10.2018 10:46 13,8 C 12,8 C 12,8 C 98 % 1021,6 hPa 0,0 l/m 0 min 0 min 50 W/m 16,1 km/h (3 Bft) 95,24 %
24.10.2018 10:48 13,8 C 12,8 C 12,8 C 98 % 1021,5 hPa 0,0 l/m 0 min 0 min 52 W/m 16,1 km/h (3 Bft) 97,83 %
24.10.2018 10:50 13,8 C 12,8 C 12,8 C 98 % 1021,6 hPa 0,0 l/m 0 min 0 min 53 W/m 16,1 km/h (3 Bft) 98,31 %
24.10.2018 10:52 13,8 C 12,8 C 12,8 C 98 % 1021,5 hPa 0,0 l/m 0 min 0 min 67 W/m 9,7 km/h (2 Bft) 100,00 %
24.10.2018 10:54 13,8 C 12,8 C 12,8 C 98 % 1021,5 hPa 0,0 l/m 0 min 0 min 61 W/m 16,1 km/h (3 Bft) 97,87 %
24.10.2018 10:56 13,8 C 12,8 C 12,8 C 98 % 1021,7 hPa 0,0 l/m 0 min 0 min 59 W/m 16,1 km/h (3 Bft) 97,87 %
24.10.2018 10:58 13,8 C 12,8 C 12,8 C 98 % 1021,7 hPa 0,0 l/m 0 min 0 min 51 W/m 12,9 km/h (3 Bft) 100,00 %
24.10.2018 11:00 13,8 C 12,8 C 12,8 C 98 % 1021,8 hPa 0,0 l/m 0 min 2 min 72 W/m 19,3 km/h (3 Bft) 97,83 %
24.10.2018 11:02 13,8 C 12,8 C 12,8 C 98 % 1021,7 hPa 0,0 l/m 0 min 2 min 83 W/m 16,1 km/h (3 Bft) 100,00 %
24.10.2018 11:04 13,8 C 13,3 C 12,8 C 98 % 1021,7 hPa 0,0 l/m 0 min 2 min 88 W/m 9,7 km/h (2 Bft) 100,00 %
24.10.2018 11:08 13,9 C 12,8 C 12,8 C 98 % 1021,8 hPa 0,0 l/m 0 min 4 min 107 W/m 29,0 km/h (5 Bft) 99,01 %
24.10.2018 11:10 13,9 C 12,8 C 12,8 C 98 % 1021,8 hPa 0,0 l/m 0 min 2 min 91 W/m 41,8 km/h (6 Bft) 100,00 %
24.10.2018 11:12 13,9 C 12,8 C 12,8 C 97 % 1021,8 hPa 0,2 l/m 0 min 2 min 85 W/m 32,2 km/h (5 Bft) 100,00 %
24.10.2018 11:14 13,9 C 12,8 C 12,2 C 97 % 1022,0 hPa 0,0 l/m 0 min 2 min 78 W/m 25,7 km/h (4 Bft) 97,87 %
24.10.2018 11:16 13,8 C 12,8 C 12,2 C 97 % 1021,9 hPa 0,0 l/m 0 min 2 min 78 W/m 12,9 km/h (3 Bft) 100,00 %
24.10.2018 11:18 13,8 C 12,8 C 12,2 C 97 % 1021,9 hPa 0,0 l/m 0 min 2 min 68 W/m 19,3 km/h (3 Bft) 100,00 %
24.10.2018 11:20 13,8 C 12,8 C 12,2 C 97 % 1021,8 hPa 0,0 l/m 0 min 0 min 66 W/m 16,1 km/h (3 Bft) 100,00 %
24.10.2018 11:22 13,8 C 12,8 C 12,2 C 97 % 1021,9 hPa 0,0 l/m 0 min 0 min 95 W/m 16,1 km/h (3 Bft) 97,83 %
24.10.2018 11:24 13,8 C 12,8 C 12,2 C 97 % 1021,8 hPa 0,0 l/m 0 min 2 min 92 W/m 19,3 km/h (3 Bft) 100,00 %
24.10.2018 11:26 13,8 C 12,8 C 12,2 C 97 % 1021,8 hPa 0,2 l/m 0 min 2 min 72 W/m 22,5 km/h (4 Bft) 100,00 %
24.10.2018 11:28 13,8 C 12,8 C 12,2 C 97 % 1021,8 hPa 0,0 l/m 0 min 0 min 113 W/m 19,3 km/h (3 Bft) 100,00 %
24.10.2018 11:30 13,8 C 13,3 C 12,2 C 97 % 1021,8 hPa 0,0 l/m 0 min 0 min 157 W/m 22,5 km/h (4 Bft) 97,87 %
24.10.2018 11:32 13,9 C 13,3 C 12,2 C 97 % 1021,8 hPa 0,0 l/m 0 min 0 min 134 W/m 16,1 km/h (3 Bft) 97,87 %
24.10.2018 11:34 13,9 C 13,3 C 12,8 C 97 % 1021,8 hPa 0,0 l/m 0 min 0 min 125 W/m 12,9 km/h (3 Bft) 100,00 %
24.10.2018 11:38 13,9 C 13,3 C 12,8 C 97 % 1021,9 hPa 0,0 l/m 0 min 0 min 138 W/m 16,1 km/h (3 Bft) 100,00 %
24.10.2018 11:40 14,0 C 13,3 C 12,8 C 97 % 1021,8 hPa 0,0 l/m 0 min 0 min 163 W/m 19,3 km/h (3 Bft) 100,00 %
24.10.2018 11:42 14,0 C 13,9 C 12,8 C 97 % 1021,9 hPa 0,0 l/m 0 min 0 min 162 W/m 16,1 km/h (3 Bft) 100,00 %
24.10.2018 11:44 14,1 C 13,9 C 12,8 C 97 % 1022,0 hPa 0,0 l/m 0 min 0 min 159 W/m 0,0 km/h (0 Bft) 97,87 %
24.10.2018 11:46 14,1 C 13,9 C 12,8 C 97 % 1022,0 hPa 0,0 l/m 0 min 0 min 175 W/m 16,1 km/h (3 Bft) 100,00 %
24.10.2018 11:48 14,2 C 13,9 C 12,8 C 97 % 1022,1 hPa 0,0 l/m 0 min 0 min 185 W/m 16,1 km/h (3 Bft) 97,87 %
24.10.2018 11:50 14,2 C 13,3 C 12,8 C 97 % 1022,1 hPa 0,0 l/m 0 min 0 min 142 W/m 19,3 km/h (3 Bft) 97,87 %
24.10.2018 11:52 14,2 C 13,3 C 12,8 C 97 % 1022,1 hPa 0,0 l/m 0 min 0 min 104 W/m 16,1 km/h (3 Bft) 97,87 %
24.10.2018 11:54 14,2 C 13,3 C 12,8 C 97 % 1022,2 hPa 0,0 l/m 0 min 2 min 100 W/m 12,9 km/h (3 Bft) 100,00 %
24.10.2018 11:56 14,2 C 13,3 C 12,8 C 97 % 1022,1 hPa 0,0 l/m 0 min 2 min 144 W/m 19,3 km/h (3 Bft) 97,87 %
24.10.2018 11:58 14,2 C 13,9 C 12,8 C 97 % 1022,2 hPa 0,0 l/m 0 min 2 min 180 W/m 12,9 km/h (3 Bft) 100,00 %
24.10.2018 12:00 14,2 C 13,9 C 12,8 C 97 % 1022,1 hPa 0,0 l/m 0 min 0 min 180 W/m 19,3 km/h (3 Bft) 100,00 %
24.10.2018 12:02 14,2 C 13,9 C 12,8 C 97 % 1022,1 hPa 0,0 l/m 0 min 0 min 185 W/m 12,9 km/h (3 Bft) 100,00 %
24.10.2018 12:04 14,2 C 13,9 C 12,8 C 97 % 1022,2 hPa 0,0 l/m 0 min 0 min 182 W/m 25,7 km/h (4 Bft) 97,87 %
24.10.2018 12:08 14,2 C 14,4 C 12,8 C 97 % 1022,2 hPa 0,0 l/m 0 min 0 min 133 W/m 32,2 km/h (5 Bft) 98,92 %
24.10.2018 12:10 14,2 C 15,0 C 12,8 C 97 % 1022,1 hPa 0,0 l/m 0 min 0 min 87 W/m 29,0 km/h (5 Bft) 100,00 %
24.10.2018 12:12 14,2 C 15,6 C 12,8 C 97 % 1022,1 hPa 0,0 l/m 0 min 0 min 67 W/m 19,3 km/h (3 Bft) 95,74 %
24.10.2018 12:14 14,2 C 16,7 C 12,8 C 97 % 1022,0 hPa 0,0 l/m 0 min 0 min 64 W/m 19,3 km/h (3 Bft) 95,74 %
24.10.2018 12:16 14,2 C 16,7 C 12,8 C 97 % 1022,1 hPa 0,0 l/m 0 min 0 min 66 W/m 29,0 km/h (5 Bft) 100,00 %
24.10.2018 12:18 14,2 C 16,7 C 12,8 C 97 % 1022,0 hPa 0,0 l/m 0 min 0 min 89 W/m 29,0 km/h (5 Bft) 97,87 %
24.10.2018 12:20 14,2 C 16,1 C 12,8 C 97 % 1022,1 hPa 0,0 l/m 0 min 0 min 145 W/m 25,7 km/h (4 Bft) 97,87 %
24.10.2018 12:22 14,2 C 15,0 C 12,8 C 97 % 1022,2 hPa 0,0 l/m 0 min 0 min 114 W/m 29,0 km/h (5 Bft) 97,83 %
24.10.2018 12:24 14,2 C 14,4 C 12,8 C 97 % 1022,2 hPa 0,0 l/m 0 min 0 min 107 W/m 29,0 km/h (5 Bft) 97,87 %
24.10.2018 12:26 14,3 C 14,4 C 12,8 C 96 % 1022,2 hPa 0,0 l/m 0 min 0 min 171 W/m 38,6 km/h (5 Bft) 97,87 %
24.10.2018 12:28 14,3 C 15,6 C 13,3 C 96 % 1022,2 hPa 0,0 l/m 0 min 0 min 214 W/m 25,7 km/h (4 Bft) 97,87 %
24.10.2018 12:30 14,3 C 15,6 C 13,3 C 96 % 1022,2 hPa 0,0 l/m 0 min 0 min 206 W/m 22,5 km/h (4 Bft) 100,00 %
24.10.2018 12:32 14,4 C 15,0 C 13,3 C 96 % 1022,0 hPa 0,0 l/m 0 min 0 min 193 W/m 35,4 km/h (5 Bft) 97,87 %
24.10.2018 12:34 14,4 C 15,0 C 13,3 C 95 % 1022,1 hPa 0,0 l/m 0 min 0 min 147 W/m 41,8 km/h (6 Bft) 95,65 %
24.10.2018 12:38 14,4 C 14,4 C 13,3 C 94 % 1022,3 hPa 0,0 l/m 0 min 0 min 135 W/m 48,3 km/h (6 Bft) 93,62 %
24.10.2018 12:40 14,4 C 14,4 C 13,3 C 94 % 1022,2 hPa 0,0 l/m 0 min 0 min 159 W/m 32,2 km/h (5 Bft) 95,74 %
24.10.2018 12:42 14,5 C 15,0 C 13,3 C 93 % 1022,2 hPa 0,0 l/m 0 min 0 min 167 W/m 32,2 km/h (5 Bft) 93,62 %
24.10.2018 12:44 14,6 C 15,0 C 13,3 C 92 % 1022,2 hPa 0,0 l/m 0 min 0 min 186 W/m 25,7 km/h (4 Bft) 93,62 %
24.10.2018 12:46 14,6 C 15,0 C 13,9 C 92 % 1022,1 hPa 0,0 l/m 0 min 0 min 159 W/m 19,3 km/h (3 Bft) 93,48 %
24.10.2018 12:48 14,7 C 15,0 C 13,9 C 91 % 1022,0 hPa 0,0 l/m 0 min 0 min 141 W/m 22,5 km/h (4 Bft) 95,74 %
24.10.2018 12:50 14,7 C 15,0 C 13,9 C 91 % 1022,0 hPa 0,0 l/m 0 min 0 min 90 W/m 22,5 km/h (4 Bft) 95,74 %
24.10.2018 12:52 14,7 C 14,4 C 13,3 C 91 % 1022,0 hPa 0,0 l/m 0 min 0 min 60 W/m 25,7 km/h (4 Bft) 95,74 %
24.10.2018 12:54 14,8 C 14,4 C 13,3 C 90 % 1022,2 hPa 0,0 l/m 0 min 0 min 52 W/m 19,3 km/h (3 Bft) 91,49 %
24.10.2018 12:56 14,7 C 14,4 C 13,3 C 90 % 1022,1 hPa 0,0 l/m 0 min 2 min 61 W/m 32,2 km/h (5 Bft) 93,62 %
24.10.2018 12:58 14,7 C 13,9 C 13,3 C 89 % 1022,1 hPa 0,0 l/m 0 min 2 min 87 W/m 25,7 km/h (4 Bft) 95,65 %
24.10.2018 13:00 14,8 C 13,9 C 13,3 C 89 % 1022,2 hPa 0,0 l/m 0 min 0 min 113 W/m 16,1 km/h (3 Bft) 95,74 %
24.10.2018 13:02 14,8 C 14,4 C 13,3 C 89 % 1022,2 hPa 0,0 l/m 0 min 0 min 130 W/m 19,3 km/h (3 Bft) 93,62 %
24.10.2018 13:04 14,8 C 14,4 C 13,3 C 89 % 1022,2 hPa 0,0 l/m 0 min 0 min 182 W/m 16,1 km/h (3 Bft) 95,74 %
24.10.2018 13:08 14,8 C 15,0 C 13,3 C 90 % 1022,1 hPa 0,0 l/m 0 min 0 min 199 W/m 25,7 km/h (4 Bft) 94,68 %
24.10.2018 13:10 14,8 C 15,6 C 13,9 C 90 % 1022,1 hPa 0,0 l/m 0 min 0 min 224 W/m 25,7 km/h (4 Bft) 93,62 %
24.10.2018 13:12 14,9 C 15,6 C 13,9 C 90 % 1022,0 hPa 0,0 l/m 0 min 0 min 215 W/m 22,5 km/h (4 Bft) 91,49 %
24.10.2018 13:14 14,9 C 15,6 C 13,9 C 89 % 1022,1 hPa 0,0 l/m 0 min 0 min 212 W/m 22,5 km/h (4 Bft) 93,62 %
24.10.2018 13:16 14,9 C 15,6 C 13,9 C 89 % 1021,9 hPa 0,0 l/m 0 min 0 min 206 W/m 22,5 km/h (4 Bft) 95,74 %
24.10.2018 13:18 14,9 C 15,6 C 13,9 C 89 % 1022,0 hPa 0,0 l/m 0 min 0 min 185 W/m 25,7 km/h (4 Bft) 95,74 %
24.10.2018 13:20 15,0 C 15,6 C 13,9 C 88 % 1021,9 hPa 0,0 l/m 0 min 0 min 138 W/m 32,2 km/h (5 Bft) 95,65 %
24.10.2018 13:22 15,0 C 15,0 C 13,9 C 87 % 1021,9 hPa 0,0 l/m 0 min 0 min 112 W/m 32,2 km/h (5 Bft) 97,87 %
24.10.2018 13:24 15,0 C 15,0 C 13,9 C 87 % 1021,9 hPa 0,0 l/m 0 min 0 min 101 W/m 22,5 km/h (4 Bft) 97,87 %
24.10.2018 13:26 15,1 C 15,0 C 13,9 C 87 % 1022,0 hPa 0,0 l/m 0 min 0 min 102 W/m 25,7 km/h (4 Bft) 95,74 %
24.10.2018 13:28 15,1 C 15,0 C 13,9 C 87 % 1021,9 hPa 0,0 l/m 0 min 0 min 156 W/m 16,1 km/h (3 Bft) 97,87 %
24.10.2018 13:30 15,1 C 15,0 C 13,9 C 87 % 1022,0 hPa 0,0 l/m 2 min 0 min 230 W/m 19,3 km/h (3 Bft) 95,74 %
24.10.2018 13:32 15,1 C 15,6 C 13,9 C 87 % 1022,1 hPa 0,0 l/m 2 min 0 min 234 W/m 16,1 km/h (3 Bft) 97,83 %
24.10.2018 13:34 15,2 C 16,1 C 14,4 C 87 % 1022,1 hPa 0,0 l/m 2 min 0 min 334 W/m 19,3 km/h (3 Bft) 95,74 %
24.10.2018 13:38 15,4 C 16,1 C 14,4 C 87 % 1022,2 hPa 0,0 l/m 4 min 0 min 362 W/m 25,7 km/h (4 Bft) 97,87 %
24.10.2018 13:40 15,4 C 15,6 C 14,4 C 87 % 1022,0 hPa 0,0 l/m 2 min 0 min 469 W/m 16,1 km/h (3 Bft) 93,62 %
24.10.2018 13:42 15,4 C 15,6 C 13,9 C 87 % 1022,1 hPa 0,0 l/m 2 min 0 min 343 W/m 25,7 km/h (4 Bft) 95,74 %
24.10.2018 13:44 15,4 C 15,6 C 13,9 C 87 % 1022,2 hPa 0,0 l/m 2 min 0 min 248 W/m 29,0 km/h (5 Bft) 97,83 %
24.10.2018 13:46 15,5 C 15,6 C 13,9 C 86 % 1022,2 hPa 0,0 l/m 2 min 0 min 250 W/m 19,3 km/h (3 Bft) 96,00 %
24.10.2018 13:48 15,5 C 15,6 C 13,9 C 86 % 1022,1 hPa 0,0 l/m 2 min 0 min 372 W/m 25,7 km/h (4 Bft) 95,74 %
24.10.2018 13:50 15,6 C 16,1 C 14,4 C 86 % 1022,1 hPa 0,0 l/m 2 min 0 min 312 W/m 22,5 km/h (4 Bft) 95,74 %
24.10.2018 13:52 15,6 C 15,6 C 14,4 C 86 % 1022,2 hPa 0,0 l/m 0 min 0 min 186 W/m 35,4 km/h (5 Bft) 95,74 %
24.10.2018 13:54 15,6 C 15,6 C 14,4 C 86 % 1022,1 hPa 0,0 l/m 0 min 0 min 169 W/m 22,5 km/h (4 Bft) 97,83 %
24.10.2018 13:56 15,6 C 15,6 C 13,9 C 86 % 1022,2 hPa 0,0 l/m 0 min 0 min 168 W/m 38,6 km/h (5 Bft) 95,74 %
24.10.2018 13:58 15,6 C 15,6 C 13,9 C 85 % 1022,2 hPa 0,0 l/m 0 min 0 min 168 W/m 25,7 km/h (4 Bft) 97,87 %
24.10.2018 14:00 15,6 C 15,6 C 13,9 C 86 % 1022,3 hPa 0,0 l/m 0 min 0 min 148 W/m 16,1 km/h (3 Bft) 97,87 %
24.10.2018 14:02 15,5 C 15,0 C 13,9 C 86 % 1022,2 hPa 0,0 l/m 0 min 0 min 132 W/m 22,5 km/h (4 Bft) 97,87 %
24.10.2018 14:04 15,5 C 15,0 C 13,9 C 86 % 1022,3 hPa 0,0 l/m 0 min 0 min 168 W/m 16,1 km/h (3 Bft) 95,74 %
24.10.2018 14:08 15,5 C 15,6 C 13,9 C 86 % 1022,3 hPa 0,0 l/m 4 min 0 min 275 W/m 16,1 km/h (3 Bft) 97,85 %
24.10.2018 14:10 15,6 C 16,1 C 14,4 C 87 % 1022,2 hPa 0,0 l/m 2 min 0 min 288 W/m 16,1 km/h (3 Bft) 100,00 %
24.10.2018 14:12 15,6 C 16,1 C 14,4 C 86 % 1022,2 hPa 0,0 l/m 2 min 0 min 373 W/m 22,5 km/h (4 Bft) 97,87 %
24.10.2018 14:14 15,6 C 16,1 C 14,4 C 86 % 1022,2 hPa 0,0 l/m 2 min 0 min 283 W/m 29,0 km/h (5 Bft) 89,36 %
24.10.2018 14:16 15,6 C 16,1 C 14,4 C 86 % 1022,2 hPa 0,0 l/m 2 min 0 min 245 W/m 25,7 km/h (4 Bft) 100,00 %
24.10.2018 14:18 15,6 C 16,1 C 14,4 C 85 % 1022,2 hPa 0,0 l/m 2 min 0 min 264 W/m 22,5 km/h (4 Bft) 100,00 %
24.10.2018 14:20 15,6 C 16,1 C 14,4 C 85 % 1022,2 hPa 0,0 l/m 2 min 0 min 282 W/m 19,3 km/h (3 Bft) 97,87 %
24.10.2018 14:22 15,7 C 16,7 C 14,4 C 85 % 1022,2 hPa 0,0 l/m 2 min 0 min 266 W/m 22,5 km/h (4 Bft) 97,87 %
24.10.2018 14:24 15,7 C 16,7 C 14,4 C 85 % 1022,2 hPa 0,0 l/m 2 min 0 min 270 W/m 19,3 km/h (3 Bft) 97,87 %
24.10.2018 14:26 15,7 C 16,7 C 14,4 C 85 % 1022,2 hPa 0,0 l/m 2 min 0 min 274 W/m 38,6 km/h (5 Bft) 100,00 %
24.10.2018 14:28 15,8 C 16,7 C 14,4 C 85 % 1022,2 hPa 0,0 l/m 2 min 0 min 269 W/m 22,5 km/h (4 Bft) 100,00 %
24.10.2018 14:30 15,8 C 16,7 C 14,4 C 85 % 1022,2 hPa 0,0 l/m 2 min 0 min 263 W/m 32,2 km/h (5 Bft) 97,83 %
24.10.2018 14:32 15,9 C 16,7 C 15,0 C 85 % 1022,2 hPa 0,0 l/m 2 min 0 min 283 W/m 16,1 km/h (3 Bft) 100,00 %
24.10.2018 14:34 15,9 C 16,7 C 15,0 C 85 % 1022,2 hPa 0,0 l/m 2 min 0 min 269 W/m 22,5 km/h (4 Bft) 100,00 %
24.10.2018 14:38 16,0 C 16,1 C 14,4 C 84 % 1022,3 hPa 0,0 l/m 4 min 0 min 254 W/m 25,7 km/h (4 Bft) 98,94 %
24.10.2018 14:40 16,0 C 15,6 C 14,4 C 84 % 1022,2 hPa 0,0 l/m 0 min 0 min 160 W/m 25,7 km/h (4 Bft) 100,00 %
24.10.2018 14:42 15,9 C 15,0 C 13,9 C 84 % 1022,2 hPa 0,0 l/m 0 min 0 min 120 W/m 25,7 km/h (4 Bft) 100,00 %
24.10.2018 14:44 15,9 C 15,0 C 13,9 C 84 % 1022,2 hPa 0,0 l/m 0 min 0 min 96 W/m 12,9 km/h (3 Bft) 100,00 %
24.10.2018 14:46 15,8 C 15,0 C 13,9 C 84 % 1022,2 hPa 0,0 l/m 0 min 0 min 91 W/m 25,7 km/h (4 Bft) 100,00 %
24.10.2018 14:48 15,8 C 15,0 C 13,9 C 84 % 1022,2 hPa 0,0 l/m 0 min 0 min 83 W/m 25,7 km/h (4 Bft) 100,00 %
24.10.2018 14:50 15,7 C 15,0 C 13,9 C 84 % 1022,2 hPa 0,0 l/m 0 min 0 min 94 W/m 12,9 km/h (3 Bft) 100,00 %
24.10.2018 14:52 15,6 C 15,0 C 13,9 C 84 % 1022,1 hPa 0,0 l/m 0 min 0 min 109 W/m 19,3 km/h (3 Bft) 100,00 %
24.10.2018 14:54 15,6 C 15,0 C 13,9 C 84 % 1022,1 hPa 0,0 l/m 0 min 0 min 138 W/m 16,1 km/h (3 Bft) 100,00 %
24.10.2018 14:56 15,5 C 15,0 C 13,9 C 84 % 1022,1 hPa 0,0 l/m 0 min 0 min 155 W/m 16,1 km/h (3 Bft) 100,00 %
24.10.2018 14:58 15,5 C 15,0 C 13,9 C 84 % 1022,1 hPa 0,0 l/m 0 min 0 min 144 W/m 22,5 km/h (4 Bft) 97,87 %
24.10.2018 15:00 15,4 C 15,0 C 13,9 C 84 % 1022,1 hPa 0,0 l/m 0 min 0 min 141 W/m 25,7 km/h (4 Bft) 100,00 %
24.10.2018 15:02 15,4 C 15,0 C 13,9 C 85 % 1022,0 hPa 0,0 l/m 0 min 0 min 144 W/m 12,9 km/h (3 Bft) 100,00 %
24.10.2018 15:04 15,4 C 15,0 C 13,9 C 85 % 1022,0 hPa 0,0 l/m 0 min 0 min 135 W/m 19,3 km/h (3 Bft) 100,00 %
24.10.2018 15:08 15,4 C 15,0 C 13,9 C 85 % 1022,0 hPa 0,0 l/m 0 min 0 min 146 W/m 32,2 km/h (5 Bft) 98,94 %
24.10.2018 15:10 15,4 C 15,0 C 13,9 C 85 % 1022,0 hPa 0,0 l/m 0 min 0 min 144 W/m 22,5 km/h (4 Bft) 100,00 %
24.10.2018 15:12 15,4 C 15,0 C 13,9 C 85 % 1022,0 hPa 0,0 l/m 0 min 0 min 123 W/m 19,3 km/h (3 Bft) 100,00 %
24.10.2018 15:14 15,4 C 15,0 C 13,9 C 85 % 1022,0 hPa 0,0 l/m 0 min 0 min 108 W/m 12,9 km/h (3 Bft) 100,00 %
24.10.2018 15:16 15,4 C 15,0 C 13,9 C 85 % 1022,0 hPa 0,0 l/m 0 min 0 min 106 W/m 12,9 km/h (3 Bft) 97,96 %
24.10.2018 15:18 15,3 C 15,0 C 13,9 C 85 % 1022,0 hPa 0,0 l/m 0 min 0 min 89 W/m 12,9 km/h (3 Bft) 95,74 %
24.10.2018 15:20 15,3 C 15,0 C 13,9 C 85 % 1022,1 hPa 0,0 l/m 0 min 0 min 78 W/m 19,3 km/h (3 Bft) 95,74 %
24.10.2018 15:22 15,3 C 14,4 C 13,9 C 85 % 1022,0 hPa 0,0 l/m 0 min 0 min 68 W/m 29,0 km/h (5 Bft) 93,62 %
24.10.2018 15:24 15,3 C 14,4 C 13,9 C 85 % 1022,1 hPa 0,0 l/m 0 min 0 min 55 W/m 22,5 km/h (4 Bft) 95,74 %
24.10.2018 15:26 15,3 C 14,4 C 13,9 C 85 % 1022,1 hPa 0,0 l/m 0 min 0 min 48 W/m 19,3 km/h (3 Bft) 93,62 %
24.10.2018 15:28 15,3 C 14,4 C 13,9 C 85 % 1022,0 hPa 0,0 l/m 0 min 0 min 36 W/m 12,9 km/h (3 Bft) 95,65 %
24.10.2018 15:30 15,2 C 14,4 C 13,9 C 85 % 1022,1 hPa 0,0 l/m 0 min 0 min 34 W/m 16,1 km/h (3 Bft) 95,74 %
24.10.2018 15:32 15,2 C 14,4 C 13,9 C 85 % 1022,1 hPa 0,0 l/m 0 min 0 min 33 W/m 12,9 km/h (3 Bft) 97,87 %
24.10.2018 15:34 15,2 C 14,4 C 13,9 C 86 % 1022,1 hPa 0,0 l/m 0 min 0 min 33 W/m 12,9 km/h (3 Bft) 95,74 %
24.10.2018 15:38 15,2 C 14,4 C 13,9 C 86 % 1022,0 hPa 0,0 l/m 0 min 0 min 48 W/m 16,1 km/h (3 Bft) 95,74 %
24.10.2018 15:40 15,2 C 14,4 C 13,9 C 86 % 1022,0 hPa 0,0 l/m 0 min 0 min 66 W/m 22,5 km/h (4 Bft) 95,65 %
24.10.2018 15:42 15,2 C 14,4 C 13,9 C 86 % 1022,0 hPa 0,0 l/m 0 min 0 min 76 W/m 9,7 km/h (2 Bft) 95,74 %
24.10.2018 15:44 15,1 C 14,4 C 13,9 C 87 % 1021,9 hPa 0,0 l/m 0 min 0 min 82 W/m 12,9 km/h (3 Bft) 93,62 %
24.10.2018 15:46 15,1 C 14,4 C 13,9 C 87 % 1021,9 hPa 0,0 l/m 0 min 0 min 89 W/m 12,9 km/h (3 Bft) 95,24 %
24.10.2018 15:48 15,1 C 14,4 C 13,9 C 87 % 1021,8 hPa 0,0 l/m 0 min 0 min 93 W/m 29,0 km/h (5 Bft) 95,74 %
24.10.2018 15:50 15,1 C 14,4 C 13,9 C 87 % 1021,8 hPa 0,0 l/m 0 min 0 min 93 W/m 12,9 km/h (3 Bft) 95,74 %
24.10.2018 15:52 15,1 C 14,4 C 13,9 C 87 % 1021,8 hPa 0,0 l/m 0 min 0 min 89 W/m 19,3 km/h (3 Bft) 95,65 %
24.10.2018 15:54 15,1 C 14,4 C 13,9 C 87 % 1021,8 hPa 0,0 l/m 0 min 0 min 76 W/m 22,5 km/h (4 Bft) 93,62 %
24.10.2018 15:56 15,0 C 14,4 C 13,9 C 87 % 1021,8 hPa 0,0 l/m 0 min 0 min 61 W/m 12,9 km/h (3 Bft) 93,62 %
24.10.2018 15:58 15,0 C 14,4 C 13,9 C 87 % 1021,8 hPa 0,0 l/m 0 min 0 min 52 W/m 9,7 km/h (2 Bft) 93,62 %
24.10.2018 16:00 14,9 C 14,4 C 13,3 C 87 % 1021,8 hPa 0,0 l/m 0 min 0 min 50 W/m 29,0 km/h (5 Bft) 95,74 %
24.10.2018 16:02 14,9 C 14,4 C 13,3 C 87 % 1021,8 hPa 0,0 l/m 0 min 0 min 47 W/m 12,9 km/h (3 Bft) 95,83 %
24.10.2018 16:04 14,9 C 14,4 C 13,3 C 87 % 1021,7 hPa 0,0 l/m 0 min 0 min 40 W/m 9,7 km/h (2 Bft) 95,74 %
24.10.2018 16:08 14,9 C 14,4 C 13,3 C 87 % 1021,7 hPa 0,0 l/m 0 min 0 min 33 W/m 19,3 km/h (3 Bft) 95,18 %
24.10.2018 16:10 14,9 C 13,9 C 13,3 C 87 % 1021,7 hPa 0,0 l/m 0 min 0 min 30 W/m 19,3 km/h (3 Bft) 97,87 %
24.10.2018 16:12 14,8 C 13,9 C 13,3 C 87 % 1021,7 hPa 0,0 l/m 0 min 0 min 27 W/m 19,3 km/h (3 Bft) 95,74 %
24.10.2018 16:14 14,8 C 13,9 C 13,3 C 87 % 1021,7 hPa 0,0 l/m 0 min 0 min 29 W/m 16,1 km/h (3 Bft) 100,00 %
24.10.2018 16:16 14,8 C 13,9 C 13,3 C 87 % 1021,7 hPa 0,0 l/m 0 min 0 min 36 W/m 29,0 km/h (5 Bft) 98,00 %
24.10.2018 16:18 14,8 C 13,9 C 13,3 C 87 % 1021,7 hPa 0,0 l/m 0 min 0 min 37 W/m 19,3 km/h (3 Bft) 97,22 %
24.10.2018 16:20 14,8 C 13,9 C 13,3 C 87 % 1021,6 hPa 0,0 l/m 0 min 0 min 44 W/m 9,7 km/h (2 Bft) 100,00 %
24.10.2018 16:22 14,7 C 14,4 C 13,3 C 87 % 1021,6 hPa 0,0 l/m 0 min 0 min 59 W/m 12,9 km/h (3 Bft) 100,00 %
24.10.2018 16:24 14,7 C 14,4 C 13,3 C 87 % 1021,6 hPa 0,0 l/m 0 min 0 min 76 W/m 16,1 km/h (3 Bft) 100,00 %
24.10.2018 16:26 14,7 C 14,4 C 13,3 C 87 % 1021,6 hPa 0,0 l/m 0 min 0 min 82 W/m 22,5 km/h (4 Bft) 97,87 %
24.10.2018 16:28 14,7 C 14,4 C 13,9 C 87 % 1021,6 hPa 0,0 l/m 0 min 0 min 76 W/m 16,1 km/h (3 Bft) 100,00 %
24.10.2018 16:30 14,7 C 14,4 C 13,9 C 87 % 1021,6 hPa 0,0 l/m 0 min 0 min 68 W/m 16,1 km/h (3 Bft) 100,00 %
24.10.2018 16:32 14,7 C 14,4 C 13,9 C 87 % 1021,7 hPa 0,0 l/m 0 min 0 min 69 W/m 16,1 km/h (3 Bft) 100,00 %
24.10.2018 16:34 14,7 C 14,4 C 13,9 C 87 % 1021,7 hPa 0,0 l/m 0 min 0 min 64 W/m 16,1 km/h (3 Bft) 95,74 %
24.10.2018 16:38 14,7 C 14,4 C 13,9 C 87 % 1021,6 hPa 0,0 l/m 0 min 0 min 48 W/m 16,1 km/h (3 Bft) 97,85 %
24.10.2018 16:40 14,7 C 14,4 C 13,9 C 87 % 1021,6 hPa 0,0 l/m 0 min 0 min 66 W/m 12,9 km/h (3 Bft) 97,87 %
24.10.2018 16:42 14,8 C 14,4 C 13,9 C 87 % 1021,6 hPa 0,0 l/m 0 min 0 min 94 W/m 16,1 km/h (3 Bft) 97,87 %
24.10.2018 16:44 14,8 C 14,4 C 13,9 C 87 % 1021,7 hPa 0,0 l/m 0 min 0 min 94 W/m 19,3 km/h (3 Bft) 97,87 %
24.10.2018 16:46 14,8 C 14,4 C 13,9 C 86 % 1021,7 hPa 0,0 l/m 0 min 0 min 71 W/m 19,3 km/h (3 Bft) 98,00 %
24.10.2018 16:48 14,8 C 14,4 C 13,9 C 86 % 1021,7 hPa 0,0 l/m 0 min 0 min 63 W/m 19,3 km/h (3 Bft) 97,87 %
24.10.2018 16:50 14,8 C 14,4 C 13,9 C 86 % 1021,7 hPa 0,0 l/m 0 min 0 min 55 W/m 12,9 km/h (3 Bft) 95,74 %
24.10.2018 16:52 14,8 C 14,4 C 13,9 C 86 % 1021,7 hPa 0,0 l/m 0 min 0 min 47 W/m 12,9 km/h (3 Bft) 95,65 %
24.10.2018 16:54 14,8 C 14,4 C 13,9 C 86 % 1021,8 hPa 0,0 l/m 0 min 0 min 43 W/m 12,9 km/h (3 Bft) 97,87 %
24.10.2018 16:56 14,8 C 14,4 C 13,9 C 86 % 1021,9 hPa 0,0 l/m 0 min 0 min 39 W/m 12,9 km/h (3 Bft) 97,87 %
24.10.2018 16:58 14,8 C 14,4 C 13,3 C 86 % 1021,8 hPa 0,0 l/m 0 min 0 min 33 W/m 16,1 km/h (3 Bft) 95,74 %
24.10.2018 17:00 14,8 C 14,4 C 13,3 C 86 % 1021,9 hPa 0,0 l/m 0 min 0 min 29 W/m 16,1 km/h (3 Bft) 97,92 %
24.10.2018 17:02 14,8 C 14,4 C 13,3 C 86 % 1021,9 hPa 0,0 l/m 0 min 0 min 32 W/m 9,7 km/h (2 Bft) 97,83 %
24.10.2018 17:04 14,8 C 14,4 C 13,3 C 86 % 1021,9 hPa 0,0 l/m 0 min 0 min 32 W/m 16,1 km/h (3 Bft) 97,87 %
24.10.2018 17:08 14,8 C 14,4 C 13,3 C 86 % 1021,9 hPa 0,0 l/m 0 min 0 min 32 W/m 19,3 km/h (3 Bft) 97,89 %
24.10.2018 17:10 14,8 C 14,4 C 13,3 C 86 % 1021,9 hPa 0,0 l/m 0 min 0 min 37 W/m 9,7 km/h (2 Bft) 97,87 %
24.10.2018 17:12 14,8 C 14,4 C 13,3 C 86 % 1021,9 hPa 0,0 l/m 0 min 0 min 35 W/m 6,4 km/h (2 Bft) 97,87 %
24.10.2018 17:14 14,8 C 13,9 C 13,3 C 86 % 1021,9 hPa 0,0 l/m 0 min 0 min 24 W/m 12,9 km/h (3 Bft) 97,83 %
24.10.2018 17:16 14,8 C 13,9 C 13,3 C 86 % 1021,9 hPa 0,0 l/m 0 min 0 min 20 W/m 12,9 km/h (3 Bft) 97,87 %
24.10.2018 17:18 14,8 C 13,9 C 13,3 C 86 % 1021,9 hPa 0,0 l/m 0 min 0 min 16 W/m 16,1 km/h (3 Bft) 97,87 %
24.10.2018 17:20 14,8 C 13,9 C 13,3 C 86 % 1022,0 hPa 0,0 l/m 0 min 0 min 16 W/m 12,9 km/h (3 Bft) 97,87 %
24.10.2018 17:22 14,7 C 13,9 C 13,3 C 86 % 1022,0 hPa 0,0 l/m 0 min 0 min 12 W/m 12,9 km/h (3 Bft) 97,87 %
24.10.2018 17:24 14,7 C 13,9 C 13,3 C 86 % 1022,1 hPa 0,0 l/m 0 min 0 min 12 W/m 25,7 km/h (4 Bft) 97,87 %
24.10.2018 17:26 14,7 C 13,9 C 13,3 C 86 % 1022,1 hPa 0,0 l/m 0 min 0 min 14 W/m 19,3 km/h (3 Bft) 97,83 %
24.10.2018 17:28 14,7 C 13,9 C 13,3 C 86 % 1022,0 hPa 0,0 l/m 0 min 0 min 18 W/m 12,9 km/h (3 Bft) 97,87 %
24.10.2018 17:30 14,7 C 13,9 C 13,3 C 87 % 1022,0 hPa 0,0 l/m 0 min 0 min 23 W/m 12,9 km/h (3 Bft) 97,87 %
24.10.2018 17:32 14,7 C 13,9 C 13,3 C 87 % 1022,0 hPa 0,0 l/m 0 min 0 min 25 W/m 9,7 km/h (2 Bft) 97,87 %
24.10.2018 17:34 14,7 C 13,9 C 13,3 C 87 % 1021,9 hPa 0,0 l/m 0 min 0 min 23 W/m 12,9 km/h (3 Bft) 97,87 %
24.10.2018 17:38 14,7 C 13,9 C 13,3 C 87 % 1022,0 hPa 0,0 l/m 0 min 0 min 21 W/m 6,4 km/h (2 Bft) 97,85 %
24.10.2018 17:40 14,7 C 13,9 C 13,3 C 87 % 1022,0 hPa 0,0 l/m 0 min 0 min 18 W/m 9,7 km/h (2 Bft) 100,00 %
24.10.2018 17:42 14,7 C 13,9 C 13,3 C 87 % 1021,9 hPa 0,0 l/m 0 min 0 min 18 W/m 12,9 km/h (3 Bft) 100,00 %
24.10.2018 17:44 14,7 C 13,9 C 13,3 C 87 % 1021,9 hPa 0,0 l/m 0 min 0 min 18 W/m 12,9 km/h (3 Bft) 100,00 %
24.10.2018 17:46 14,6 C 13,9 C 13,3 C 87 % 1021,9 hPa 0,0 l/m 0 min 0 min 16 W/m 16,1 km/h (3 Bft) 97,87 %
24.10.2018 17:48 14,6 C 13,9 C 13,3 C 87 % 1021,9 hPa 0,0 l/m 0 min 0 min 14 W/m 16,1 km/h (3 Bft) 100,00 %
24.10.2018 17:50 14,6 C 13,9 C 13,3 C 87 % 1021,9 hPa 0,0 l/m 0 min 0 min 14 W/m 9,7 km/h (2 Bft) 97,83 %
24.10.2018 17:52 14,6 C 13,9 C 13,3 C 87 % 1021,9 hPa 0,0 l/m 0 min 0 min 16 W/m 12,9 km/h (3 Bft) 100,00 %
24.10.2018 17:54 14,6 C 13,9 C 13,3 C 87 % 1021,9 hPa 0,0 l/m 0 min 0 min 13 W/m 12,9 km/h (3 Bft) 100,00 %
24.10.2018 17:56 14,6 C 13,9 C 13,3 C 87 % 1021,9 hPa 0,0 l/m 0 min 0 min 11 W/m 9,7 km/h (2 Bft) 97,87 %
24.10.2018 17:58 14,6 C 13,9 C 13,3 C 87 % 1021,9 hPa 0,0 l/m 0 min 0 min 11 W/m 12,9 km/h (3 Bft) 100,00 %
24.10.2018 18:00 14,6 C 13,9 C 13,3 C 87 % 1021,9 hPa 0,0 l/m 0 min 0 min 11 W/m 6,4 km/h (2 Bft) 100,00 %
24.10.2018 18:02 14,6 C 13,9 C 13,3 C 87 % 1021,8 hPa 0,0 l/m 0 min 0 min 10 W/m 12,9 km/h (3 Bft) 97,87 %
24.10.2018 18:04 14,6 C 13,9 C 13,3 C 88 % 1021,9 hPa 0,0 l/m 0 min 0 min 7 W/m 9,7 km/h (2 Bft) 93,62 %
24.10.2018 18:08 14,5 C 13,9 C 13,3 C 88 % 1021,9 hPa 0,0 l/m 0 min 0 min 2 W/m 9,7 km/h (2 Bft) 95,74 %
24.10.2018 18:10 14,5 C 13,9 C 13,3 C 88 % 1021,9 hPa 0,0 l/m 0 min 0 min 0 W/m 9,7 km/h (2 Bft) 97,87 %
24.10.2018 18:12 14,5 C 13,9 C 13,3 C 88 % 1022,0 hPa 0,0 l/m 0 min 0 min 0 W/m 9,7 km/h (2 Bft) 93,48 %
24.10.2018 18:14 14,5 C 13,9 C 13,3 C 88 % 1021,9 hPa 0,0 l/m 0 min 0 min 0 W/m 16,1 km/h (3 Bft) 97,87 %
24.10.2018 18:16 14,4 C 13,9 C 13,3 C 88 % 1021,9 hPa 0,0 l/m 0 min 0 min 0 W/m 19,3 km/h (3 Bft) 97,78 %
24.10.2018 18:18 14,4 C 13,9 C 13,3 C 88 % 1021,9 hPa 0,0 l/m 0 min 0 min 0 W/m 9,7 km/h (2 Bft) 97,87 %
24.10.2018 18:20 14,4 C 13,9 C 13,3 C 88 % 1021,9 hPa 0,0 l/m 0 min 0 min 0 W/m 9,7 km/h (2 Bft) 95,74 %
24.10.2018 18:22 14,4 C 13,9 C 13,3 C 88 % 1021,9 hPa 0,0 l/m 0 min 0 min 0 W/m 9,7 km/h (2 Bft) 93,62 %
24.10.2018 18:24 14,4 C 13,9 C 13,3 C 88 % 1021,9 hPa 0,0 l/m 0 min 0 min 0 W/m 19,3 km/h (3 Bft) 95,65 %
24.10.2018 18:26 14,4 C 13,3 C 12,8 C 88 % 1021,9 hPa 0,0 l/m 0 min 0 min 0 W/m 9,7 km/h (2 Bft) 93,62 %
24.10.2018 18:28 14,4 C 13,3 C 12,8 C 88 % 1021,9 hPa 0,0 l/m 0 min 0 min 0 W/m 9,7 km/h (2 Bft) 93,62 %
24.10.2018 18:30 14,3 C 13,3 C 12,8 C 88 % 1022,0 hPa 0,0 l/m 0 min 0 min 0 W/m 9,7 km/h (2 Bft) 95,74 %
24.10.2018 18:32 14,3 C 13,3 C 12,8 C 88 % 1021,9 hPa 0,0 l/m 0 min 0 min 0 W/m 9,7 km/h (2 Bft) 95,83 %
24.10.2018 18:34 14,3 C 13,3 C 12,8 C 88 % 1021,9 hPa 0,0 l/m 0 min 0 min 0 W/m 6,4 km/h (2 Bft) 93,62 %
24.10.2018 18:38 14,3 C 13,3 C 12,8 C 88 % 1021,9 hPa 0,0 l/m 0 min 0 min 0 W/m 12,9 km/h (3 Bft) 95,70 %
24.10.2018 18:40 14,2 C 13,3 C 12,8 C 89 % 1022,0 hPa 0,0 l/m 0 min 0 min 0 W/m 9,7 km/h (2 Bft) 93,62 %
24.10.2018 18:42 14,2 C 13,3 C 12,8 C 89 % 1022,0 hPa 0,0 l/m 0 min 0 min 0 W/m 9,7 km/h (2 Bft) 93,62 %
24.10.2018 18:44 14,2 C 13,3 C 12,8 C 89 % 1022,0 hPa 0,0 l/m 0 min 0 min 0 W/m 22,5 km/h (4 Bft) 95,74 %
24.10.2018 18:46 14,2 C 13,3 C 12,8 C 89 % 1022,1 hPa 0,0 l/m 0 min 0 min 0 W/m 12,9 km/h (3 Bft) 95,83 %
24.10.2018 18:48 14,2 C 13,3 C 12,8 C 89 % 1022,0 hPa 0,0 l/m 0 min 0 min 0 W/m 12,9 km/h (3 Bft) 95,65 %
24.10.2018 18:50 14,2 C 13,3 C 12,8 C 89 % 1022,1 hPa 0,0 l/m 0 min 0 min 0 W/m 22,5 km/h (4 Bft) 97,87 %
24.10.2018 18:52 14,2 C 13,3 C 12,8 C 89 % 1022,1 hPa 0,0 l/m 0 min 0 min 0 W/m 12,9 km/h (3 Bft) 97,87 %
24.10.2018 18:54 14,2 C 13,3 C 12,8 C 89 % 1022,1 hPa 0,0 l/m 0 min 0 min 0 W/m 12,9 km/h (3 Bft) 97,87 %
24.10.2018 18:56 14,2 C 13,3 C 12,8 C 89 % 1022,2 hPa 0,0 l/m 0 min 0 min 0 W/m 6,4 km/h (2 Bft) 93,62 %
24.10.2018 18:58 14,2 C 13,3 C 12,8 C 89 % 1022,2 hPa 0,0 l/m 0 min 0 min 0 W/m 12,9 km/h (3 Bft) 97,87 %
24.10.2018 19:00 14,2 C 13,3 C 12,8 C 89 % 1022,2 hPa 0,0 l/m 0 min 0 min 0 W/m 16,1 km/h (3 Bft) 97,83 %
24.10.2018 19:02 14,2 C 13,3 C 12,8 C 90 % 1022,1 hPa 0,0 l/m 0 min 0 min 0 W/m 12,9 km/h (3 Bft) 95,74 %
24.10.2018 19:04 14,1 C 13,3 C 12,8 C 90 % 1022,2 hPa 0,0 l/m 0 min 0 min 0 W/m 22,5 km/h (4 Bft) 97,87 %
24.10.2018 19:08 14,1 C 13,3 C 12,8 C 90 % 1022,2 hPa 0,0 l/m 0 min 0 min 0 W/m 19,3 km/h (3 Bft) 96,84 %
24.10.2018 19:10 14,0 C 13,3 C 12,8 C 90 % 1022,2 hPa 0,0 l/m 0 min 0 min 0 W/m 9,7 km/h (2 Bft) 97,87 %
24.10.2018 19:12 14,0 C 13,3 C 12,8 C 90 % 1022,2 hPa 0,0 l/m 0 min 0 min 0 W/m 12,9 km/h (3 Bft) 100,00 %
24.10.2018 19:14 14,0 C 13,3 C 12,8 C 90 % 1022,2 hPa 0,0 l/m 0 min 0 min 0 W/m 19,3 km/h (3 Bft) 100,00 %
24.10.2018 19:16 14,0 C 13,3 C 12,8 C 90 % 1022,2 hPa 0,0 l/m 0 min 0 min 0 W/m 25,7 km/h (4 Bft) 100,00 %
24.10.2018 19:18 13,9 C 13,3 C 12,8 C 90 % 1022,2 hPa 0,0 l/m 0 min 0 min 0 W/m 16,1 km/h (3 Bft) 100,00 %
24.10.2018 19:20 13,9 C 13,3 C 12,8 C 90 % 1022,2 hPa 0,0 l/m 0 min 0 min 0 W/m 9,7 km/h (2 Bft) 100,00 %
24.10.2018 19:22 13,9 C 13,3 C 12,8 C 90 % 1022,2 hPa 0,0 l/m 0 min 0 min 0 W/m 16,1 km/h (3 Bft) 100,00 %
24.10.2018 19:24 13,9 C 13,3 C 12,8 C 90 % 1022,3 hPa 0,0 l/m 0 min 0 min 0 W/m 16,1 km/h (3 Bft) 100,00 %
24.10.2018 19:26 13,9 C 13,3 C 12,8 C 90 % 1022,3 hPa 0,0 l/m 0 min 0 min 0 W/m 16,1 km/h (3 Bft) 100,00 %
24.10.2018 19:28 13,9 C 13,3 C 12,8 C 90 % 1022,3 hPa 0,0 l/m 0 min 0 min 0 W/m 16,1 km/h (3 Bft) 100,00 %
24.10.2018 19:30 13,9 C 13,3 C 12,8 C 90 % 1022,3 hPa 0,0 l/m 0 min 0 min 0 W/m 16,1 km/h (3 Bft) 100,00 %
24.10.2018 19:32 13,9 C 13,3 C 12,8 C 90 % 1022,3 hPa 0,0 l/m 0 min 0 min 0 W/m 16,1 km/h (3 Bft) 95,24 %
24.10.2018 19:34 13,9 C 13,3 C 12,8 C 90 % 1022,3 hPa 0,0 l/m 0 min 0 min 0 W/m 16,1 km/h (3 Bft) 100,00 %
24.10.2018 19:38 13,9 C 13,3 C 12,8 C 90 % 1022,4 hPa 0,0 l/m 0 min 0 min 0 W/m 12,9 km/h (3 Bft) 100,00 %
24.10.2018 19:40 13,8 C 13,3 C 12,8 C 90 % 1022,4 hPa 0,0 l/m 0 min 0 min 0 W/m 16,1 km/h (3 Bft) 100,00 %
24.10.2018 19:42 13,8 C 13,3 C 12,8 C 90 % 1022,4 hPa 0,0 l/m 0 min 0 min 0 W/m 16,1 km/h (3 Bft) 100,00 %
24.10.2018 19:44 13,8 C 13,3 C 12,8 C 90 % 1022,3 hPa 0,0 l/m 0 min 0 min 0 W/m 19,3 km/h (3 Bft) 100,00 %
24.10.2018 19:46 13,8 C 13,3 C 12,8 C 90 % 1022,4 hPa 0,0 l/m 0 min 0 min 0 W/m 12,9 km/h (3 Bft) 100,00 %
24.10.2018 19:48 13,8 C 13,3 C 12,8 C 90 % 1022,4 hPa 0,0 l/m 0 min 0 min 0 W/m 12,9 km/h (3 Bft) 100,00 %
24.10.2018 19:50 13,8 C 13,3 C 12,8 C 90 % 1022,4 hPa 0,0 l/m 0 min 0 min 0 W/m 19,3 km/h (3 Bft) 100,00 %
24.10.2018 19:52 13,8 C 13,3 C 12,8 C 90 % 1022,4 hPa 0,0 l/m 0 min 0 min 0 W/m 9,7 km/h (2 Bft) 100,00 %
24.10.2018 19:54 13,8 C 13,3 C 12,8 C 90 % 1022,4 hPa 0,0 l/m 0 min 0 min 0 W/m 12,9 km/h (3 Bft) 100,00 %
24.10.2018 19:56 13,8 C 13,3 C 12,8 C 90 % 1022,4 hPa 0,0 l/m 0 min 0 min 0 W/m 9,7 km/h (2 Bft) 97,87 %
24.10.2018 19:58 13,8 C 13,3 C 12,8 C 90 % 1022,4 hPa 0,0 l/m 0 min 0 min 0 W/m 16,1 km/h (3 Bft) 100,00 %
24.10.2018 20:00 13,8 C 13,3 C 12,8 C 90 % 1022,4 hPa 0,0 l/m 0 min 0 min 0 W/m 12,9 km/h (3 Bft) 100,00 %
24.10.2018 20:02 13,8 C 12,8 C 12,8 C 90 % 1022,4 hPa 0,0 l/m 0 min 0 min 0 W/m 12,9 km/h (3 Bft) 95,74 %
24.10.2018 20:04 13,8 C 12,8 C 12,8 C 90 % 1022,4 hPa 0,0 l/m 0 min 0 min 0 W/m 12,9 km/h (3 Bft) 100,00 %
24.10.2018 20:08 13,8 C 12,8 C 12,8 C 90 % 1022,4 hPa 0,0 l/m 0 min 0 min 0 W/m 9,7 km/h (2 Bft) 100,00 %
24.10.2018 20:10 13,8 C 12,8 C 12,8 C 90 % 1022,4 hPa 0,0 l/m 0 min 0 min 0 W/m 6,4 km/h (2 Bft) 97,87 %
24.10.2018 20:12 13,7 C 12,8 C 12,8 C 90 % 1022,4 hPa 0,0 l/m 0 min 0 min 0 W/m 9,7 km/h (2 Bft) 97,83 %
24.10.2018 20:14 13,7 C 12,8 C 12,2 C 90 % 1022,3 hPa 0,0 l/m 0 min 0 min 0 W/m 9,7 km/h (2 Bft) 97,87 %
24.10.2018 20:16 13,7 C 12,8 C 12,2 C 90 % 1022,4 hPa 0,0 l/m 0 min 0 min 0 W/m 12,9 km/h (3 Bft) 97,96 %
24.10.2018 20:18 13,7 C 12,8 C 12,2 C 90 % 1022,4 hPa 0,0 l/m 0 min 0 min 0 W/m 12,9 km/h (3 Bft) 97,87 %
24.10.2018 20:20 13,7 C 12,8 C 12,2 C 90 % 1022,4 hPa 0,0 l/m 0 min 0 min 0 W/m 9,7 km/h (2 Bft) 98,28 %
24.10.2018 20:22 13,7 C 12,8 C 12,2 C 90 % 1022,4 hPa 0,0 l/m 0 min 0 min 0 W/m 3,2 km/h (1 Bft) 95,74 %
24.10.2018 20:24 13,7 C 12,8 C 12,2 C 90 % 1022,4 hPa 0,0 l/m 0 min 0 min 0 W/m 9,7 km/h (2 Bft) 100,00 %
24.10.2018 20:26 13,6 C 12,8 C 12,2 C 90 % 1022,4 hPa 0,0 l/m 0 min 0 min 0 W/m 6,4 km/h (2 Bft) 97,87 %
24.10.2018 20:28 13,6 C 12,8 C 12,2 C 90 % 1022,4 hPa 0,0 l/m 0 min 0 min 0 W/m 6,4 km/h (2 Bft) 97,87 %
24.10.2018 20:30 13,6 C 12,8 C 12,2 C 90 % 1022,4 hPa 0,0 l/m 0 min 0 min 0 W/m 6,4 km/h (2 Bft) 97,87 %
24.10.2018 20:32 13,6 C 12,8 C 12,2 C 90 % 1022,5 hPa 0,0 l/m 0 min 0 min 0 W/m 6,4 km/h (2 Bft) 95,83 %
24.10.2018 20:34 13,6 C 12,8 C 12,2 C 90 % 1022,4 hPa 0,0 l/m 0 min 0 min 0 W/m 3,2 km/h (1 Bft) 97,83 %
24.10.2018 20:38 13,6 C 12,8 C 12,2 C 90 % 1022,4 hPa 0,0 l/m 0 min 0 min 0 W/m 9,7 km/h (2 Bft) 97,87 %
24.10.2018 20:40 13,5 C 12,8 C 12,2 C 90 % 1022,4 hPa 0,0 l/m 0 min 0 min 0 W/m 12,9 km/h (3 Bft) 97,87 %
24.10.2018 20:42 13,5 C 12,8 C 12,2 C 90 % 1022,4 hPa 0,0 l/m 0 min 0 min 0 W/m 3,2 km/h (1 Bft) 97,87 %
24.10.2018 20:44 13,5 C 12,8 C 12,2 C 90 % 1022,3 hPa 0,0 l/m 0 min 0 min 0 W/m 6,4 km/h (2 Bft) 97,87 %
24.10.2018 20:46 13,5 C 12,8 C 12,2 C 90 % 1022,4 hPa 0,0 l/m 0 min 0 min 0 W/m 9,7 km/h (2 Bft) 93,75 %
24.10.2018 20:48 13,5 C 12,8 C 12,2 C 91 % 1022,4 hPa 0,0 l/m 0 min 0 min 0 W/m 9,7 km/h (2 Bft) 97,87 %
24.10.2018 20:50 13,4 C 12,8 C 12,2 C 91 % 1022,4 hPa 0,0 l/m 0 min 0 min 0 W/m 9,7 km/h (2 Bft) 95,74 %
24.10.2018 20:52 13,4 C 12,8 C 12,2 C 91 % 1022,3 hPa 0,0 l/m 0 min 0 min 0 W/m 9,7 km/h (2 Bft) 93,62 %
24.10.2018 20:54 13,4 C 12,8 C 12,2 C 91 % 1022,4 hPa 0,0 l/m 0 min 0 min 0 W/m 6,4 km/h (2 Bft) 95,74 %
24.10.2018 20:56 13,4 C 12,8 C 12,2 C 91 % 1022,3 hPa 0,0 l/m 0 min 0 min 0 W/m 9,7 km/h (2 Bft) 95,74 %
24.10.2018 20:58 13,4 C 12,8 C 12,2 C 91 % 1022,4 hPa 0,0 l/m 0 min 0 min 0 W/m 12,9 km/h (3 Bft) 95,65 %
24.10.2018 21:00 13,4 C 12,8 C 12,2 C 91 % 1022,4 hPa 0,0 l/m 0 min 0 min 0 W/m 9,7 km/h (2 Bft) 91,49 %
24.10.2018 21:02 13,4 C 12,8 C 12,2 C 91 % 1022,3 hPa 0,0 l/m 0 min 0 min 0 W/m 9,7 km/h (2 Bft) 95,74 %
24.10.2018 21:04 13,4 C 12,8 C 12,2 C 91 % 1022,2 hPa 0,0 l/m 0 min 0 min 0 W/m 12,9 km/h (3 Bft) 95,74 %
24.10.2018 21:08 13,4 C 12,8 C 12,2 C 91 % 1022,2 hPa 0,0 l/m 0 min 0 min 0 W/m 9,7 km/h (2 Bft) 93,62 %
24.10.2018 21:10 13,4 C 12,8 C 12,2 C 91 % 1022,2 hPa 0,0 l/m 0 min 0 min 0 W/m 16,1 km/h (3 Bft) 93,62 %
24.10.2018 21:12 13,4 C 12,8 C 12,2 C 91 % 1022,2 hPa 0,0 l/m 0 min 0 min 0 W/m 6,4 km/h (2 Bft) 95,74 %
24.10.2018 21:14 13,4 C 12,8 C 12,2 C 91 % 1022,2 hPa 0,0 l/m 0 min 0 min 0 W/m 6,4 km/h (2 Bft) 95,74 %
24.10.2018 21:16 13,4 C 12,8 C 12,2 C 91 % 1022,3 hPa 0,0 l/m 0 min 0 min 0 W/m 9,7 km/h (2 Bft) 93,75 %
24.10.2018 21:18 13,4 C 12,8 C 12,2 C 91 % 1022,2 hPa 0,0 l/m 0 min 0 min 0 W/m 6,4 km/h (2 Bft) 95,74 %
24.10.2018 21:20 13,4 C 12,8 C 12,2 C 91 % 1022,2 hPa 0,0 l/m 0 min 0 min 0 W/m 9,7 km/h (2 Bft) 93,62 %
24.10.2018 21:22 13,4 C 12,8 C 12,2 C 91 % 1022,3 hPa 0,0 l/m 0 min 0 min 0 W/m 12,9 km/h (3 Bft) 95,65 %
24.10.2018 21:24 13,4 C 12,8 C 12,2 C 91 % 1022,2 hPa 0,0 l/m 0 min 0 min 0 W/m 12,9 km/h (3 Bft) 95,74 %
24.10.2018 21:26 13,4 C 12,8 C 12,2 C 91 % 1022,2 hPa 0,0 l/m 0 min 0 min 0 W/m 9,7 km/h (2 Bft) 95,74 %
24.10.2018 21:28 13,4 C 12,8 C 12,2 C 91 % 1022,3 hPa 0,0 l/m 0 min 0 min 0 W/m 9,7 km/h (2 Bft) 95,74 %
24.10.2018 21:30 13,4 C 12,8 C 12,2 C 92 % 1022,3 hPa 0,0 l/m 0 min 0 min 0 W/m 9,7 km/h (2 Bft) 93,62 %
24.10.2018 21:32 13,4 C 12,8 C 12,2 C 92 % 1022,3 hPa 0,0 l/m 0 min 0 min 0 W/m 6,4 km/h (2 Bft) 95,74 %
24.10.2018 21:34 13,4 C 12,8 C 12,2 C 92 % 1022,4 hPa 0,0 l/m 0 min 0 min 0 W/m 9,7 km/h (2 Bft) 93,48 %
24.10.2018 21:38 13,4 C 12,8 C 12,2 C 92 % 1022,2 hPa 0,0 l/m 0 min 0 min 0 W/m 16,1 km/h (3 Bft) 97,87 %
24.10.2018 21:40 13,4 C 12,8 C 12,2 C 92 % 1022,3 hPa 0,0 l/m 0 min 0 min 0 W/m 9,7 km/h (2 Bft) 97,87 %
24.10.2018 21:42 13,4 C 12,8 C 12,2 C 92 % 1022,2 hPa 0,0 l/m 0 min 0 min 0 W/m 12,9 km/h (3 Bft) 93,62 %
24.10.2018 21:44 13,4 C 12,8 C 12,2 C 92 % 1022,2 hPa 0,0 l/m 0 min 0 min 0 W/m 9,7 km/h (2 Bft) 97,83 %
24.10.2018 21:46 13,3 C 12,8 C 12,2 C 92 % 1022,3 hPa 0,0 l/m 0 min 0 min 0 W/m 6,4 km/h (2 Bft) 95,74 %
24.10.2018 21:48 13,3 C 12,8 C 12,2 C 92 % 1022,3 hPa 0,0 l/m 0 min 0 min 0 W/m 6,4 km/h (2 Bft) 95,74 %
24.10.2018 21:50 13,3 C 12,2 C 12,2 C 92 % 1022,3 hPa 0,0 l/m 0 min 0 min 0 W/m 6,4 km/h (2 Bft) 97,87 %
24.10.2018 21:52 13,3 C 12,2 C 12,2 C 92 % 1022,2 hPa 0,0 l/m 0 min 0 min 0 W/m 9,7 km/h (2 Bft) 93,62 %
24.10.2018 21:54 13,3 C 12,2 C 12,2 C 92 % 1022,4 hPa 0,0 l/m 0 min 0 min 0 W/m 6,4 km/h (2 Bft) 97,87 %
24.10.2018 21:56 13,3 C 12,2 C 12,2 C 92 % 1022,2 hPa 0,0 l/m 0 min 0 min 0 W/m 12,9 km/h (3 Bft) 97,83 %
24.10.2018 21:58 13,3 C 12,2 C 12,2 C 92 % 1022,2 hPa 0,0 l/m 0 min 0 min 0 W/m 19,3 km/h (3 Bft) 95,74 %
24.10.2018 22:00 13,3 C 12,2 C 11,7 C 92 % 1022,2 hPa 0,0 l/m 0 min 0 min 0 W/m 6,4 km/h (2 Bft) 97,87 %
24.10.2018 22:02 13,3 C 12,2 C 11,7 C 92 % 1022,3 hPa 0,0 l/m 0 min 0 min 0 W/m 12,9 km/h (3 Bft) 95,74 %
24.10.2018 22:04 13,3 C 11,7 C 11,7 C 93 % 1022,2 hPa 0,0 l/m 0 min 0 min 0 W/m 6,4 km/h (2 Bft) 97,87 %
24.10.2018 22:08 13,2 C 11,7 C 11,7 C 93 % 1022,3 hPa 0,0 l/m 0 min 0 min 0 W/m 9,7 km/h (2 Bft) 100,00 %
24.10.2018 22:10 13,2 C 11,7 C 11,7 C 93 % 1022,1 hPa 0,0 l/m 0 min 0 min 0 W/m 6,4 km/h (2 Bft) 100,00 %
24.10.2018 22:12 13,2 C 11,7 C 11,7 C 93 % 1022,1 hPa 0,0 l/m 0 min 0 min 0 W/m 9,7 km/h (2 Bft) 100,00 %
24.10.2018 22:14 13,2 C 11,7 C 11,7 C 93 % 1022,0 hPa 0,0 l/m 0 min 0 min 0 W/m 3,2 km/h (1 Bft) 100,00 %
24.10.2018 22:16 13,2 C 11,7 C 11,7 C 93 % 1022,0 hPa 0,0 l/m 0 min 0 min 0 W/m 6,4 km/h (2 Bft) 100,00 %
24.10.2018 22:18 13,2 C 11,7 C 11,7 C 93 % 1022,0 hPa 0,0 l/m 0 min 0 min 0 W/m 9,7 km/h (2 Bft) 100,00 %
24.10.2018 22:20 13,2 C 11,7 C 11,7 C 93 % 1022,0 hPa 0,0 l/m 0 min 0 min 0 W/m 3,2 km/h (1 Bft) 100,00 %
24.10.2018 22:22 13,1 C 11,7 C 11,7 C 93 % 1022,1 hPa 0,0 l/m 0 min 0 min 0 W/m 6,4 km/h (2 Bft) 97,87 %
24.10.2018 22:24 13,1 C 11,7 C 11,7 C 93 % 1022,0 hPa 0,0 l/m 0 min 0 min 0 W/m 3,2 km/h (1 Bft) 100,00 %
24.10.2018 22:26 13,1 C 11,7 C 11,7 C 94 % 1022,0 hPa 0,0 l/m 0 min 0 min 0 W/m 3,2 km/h (1 Bft) 100,00 %
24.10.2018 22:28 13,1 C 11,7 C 11,7 C 93 % 1022,0 hPa 0,0 l/m 0 min 0 min 0 W/m 3,2 km/h (1 Bft) 100,00 %
24.10.2018 22:30 13,1 C 11,7 C 11,7 C 93 % 1021,9 hPa 0,0 l/m 0 min 0 min 0 W/m 3,2 km/h (1 Bft) 100,00 %
24.10.2018 22:32 13,1 C 11,7 C 11,7 C 94 % 1021,9 hPa 0,0 l/m 0 min 0 min 0 W/m 3,2 km/h (1 Bft) 100,00 %
24.10.2018 22:34 13,1 C 11,7 C 11,7 C 94 % 1021,9 hPa 0,0 l/m 0 min 0 min 0 W/m 3,2 km/h (1 Bft) 100,00 %
24.10.2018 22:38 13,0 C 11,7 C 11,7 C 94 % 1022,0 hPa 0,0 l/m 0 min 0 min 0 W/m 3,2 km/h (1 Bft) 100,00 %
24.10.2018 22:40 13,0 C 11,7 C 11,7 C 94 % 1022,0 hPa 0,0 l/m 0 min 0 min 0 W/m 3,2 km/h (1 Bft) 100,00 %
24.10.2018 22:42 13,0 C 12,2 C 11,7 C 94 % 1022,0 hPa 0,0 l/m 0 min 0 min 0 W/m 3,2 km/h (1 Bft) 100,00 %
24.10.2018 22:44 13,0 C 11,7 C 11,7 C 94 % 1022,0 hPa 0,0 l/m 0 min 0 min 0 W/m 3,2 km/h (1 Bft) 100,00 %
24.10.2018 22:46 12,9 C 11,7 C 11,7 C 94 % 1022,0 hPa 0,0 l/m 0 min 0 min 0 W/m 3,2 km/h (1 Bft) 100,00 %
24.10.2018 22:48 12,9 C 11,7 C 11,7 C 94 % 1022,0 hPa 0,0 l/m 0 min 0 min 0 W/m 3,2 km/h (1 Bft) 100,00 %
24.10.2018 22:50 12,9 C 11,7 C 11,7 C 94 % 1021,9 hPa 0,0 l/m 0 min 0 min 0 W/m 3,2 km/h (1 Bft) 100,00 %
24.10.2018 22:52 12,9 C 11,7 C 11,7 C 94 % 1021,9 hPa 0,0 l/m 0 min 0 min 0 W/m 0,0 km/h (0 Bft) 100,00 %
24.10.2018 22:54 12,9 C 11,7 C 11,7 C 94 % 1021,9 hPa 0,0 l/m 0 min 0 min 0 W/m 3,2 km/h (1 Bft) 100,00 %
24.10.2018 22:56 12,9 C 11,7 C 11,7 C 94 % 1021,9 hPa 0,0 l/m 0 min 0 min 0 W/m 6,4 km/h (2 Bft) 100,00 %
24.10.2018 22:58 12,9 C 11,7 C 11,7 C 94 % 1021,9 hPa 0,0 l/m 0 min 0 min 0 W/m 3,2 km/h (1 Bft) 100,00 %
24.10.2018 23:00 12,9 C 11,7 C 11,7 C 94 % 1022,0 hPa 0,0 l/m 0 min 0 min 0 W/m 3,2 km/h (1 Bft) 100,00 %
24.10.2018 23:02 12,9 C 11,7 C 11,7 C 94 % 1022,0 hPa 0,0 l/m 0 min 2 min 0 W/m 3,2 km/h (1 Bft) 100,00 %
24.10.2018 23:04 12,9 C 11,7 C 11,7 C 95 % 1021,9 hPa 0,0 l/m 0 min 2 min 0 W/m 0,0 km/h (0 Bft) 100,00 %
24.10.2018 23:08 12,9 C 11,7 C 11,7 C 95 % 1021,8 hPa 0,0 l/m 0 min 4 min 0 W/m 3,2 km/h (1 Bft) 100,00 %
24.10.2018 23:10 12,9 C 11,7 C 11,7 C 95 % 1021,8 hPa 0,0 l/m 0 min 2 min 0 W/m 3,2 km/h (1 Bft) 100,00 %
24.10.2018 23:12 12,9 C 11,7 C 11,7 C 95 % 1021,8 hPa 0,0 l/m 0 min 2 min 0 W/m 3,2 km/h (1 Bft) 100,00 %
24.10.2018 23:14 12,9 C 11,7 C 11,7 C 95 % 1021,8 hPa 0,0 l/m 0 min 2 min 0 W/m 0,0 km/h (0 Bft) 97,87 %
24.10.2018 23:16 12,9 C 11,7 C 11,7 C 95 % 1021,7 hPa 0,0 l/m 0 min 2 min 0 W/m 0,0 km/h (0 Bft) 100,00 %
24.10.2018 23:18 12,9 C 11,7 C 11,7 C 95 % 1021,6 hPa 0,2 l/m 0 min 0 min 0 W/m 3,2 km/h (1 Bft) 100,00 %
24.10.2018 23:20 12,9 C 11,7 C 11,7 C 95 % 1021,7 hPa 0,0 l/m 0 min 0 min 0 W/m 3,2 km/h (1 Bft) 100,00 %
24.10.2018 23:22 12,9 C 11,7 C 11,7 C 95 % 1021,7 hPa 0,0 l/m 0 min 0 min 0 W/m 0,0 km/h (0 Bft) 100,00 %
24.10.2018 23:24 12,9 C 11,7 C 11,7 C 95 % 1021,6 hPa 0,0 l/m 0 min 0 min 0 W/m 0,0 km/h (0 Bft) 100,00 %
24.10.2018 23:26 12,9 C 11,7 C 11,7 C 95 % 1021,6 hPa 0,0 l/m 0 min 0 min 0 W/m 3,2 km/h (1 Bft) 100,00 %
24.10.2018 23:28 12,9 C 11,7 C 11,7 C 95 % 1021,5 hPa 0,0 l/m 0 min 0 min 0 W/m 6,4 km/h (2 Bft) 100,00 %
24.10.2018 23:30 12,9 C 11,7 C 11,7 C 95 % 1021,6 hPa 0,0 l/m 0 min 0 min 0 W/m 3,2 km/h (1 Bft) 100,00 %
24.10.2018 23:32 12,9 C 11,7 C 11,7 C 95 % 1021,6 hPa 0,0 l/m 0 min 0 min 0 W/m 0,0 km/h (0 Bft) 100,00 %
24.10.2018 23:34 12,8 C 11,7 C 11,7 C 95 % 1021,5 hPa 0,0 l/m 0 min 0 min 0 W/m 0,0 km/h (0 Bft) 100,00 %
24.10.2018 23:38 12,8 C 11,7 C 11,7 C 95 % 1021,4 hPa 0,0 l/m 0 min 0 min 0 W/m 0,0 km/h (0 Bft) 100,00 %
24.10.2018 23:40 12,8 C 11,7 C 11,7 C 95 % 1021,4 hPa 0,0 l/m 0 min 0 min 0 W/m 0,0 km/h (0 Bft) 97,83 %
24.10.2018 23:42 12,8 C 11,7 C 11,7 C 95 % 1021,4 hPa 0,0 l/m 0 min 0 min 0 W/m 3,2 km/h (1 Bft) 97,87 %
24.10.2018 23:44 12,8 C 11,7 C 11,7 C 95 % 1021,4 hPa 0,0 l/m 0 min 0 min 0 W/m 0,0 km/h (0 Bft) 97,87 %
24.10.2018 23:46 12,8 C 11,7 C 11,7 C 95 % 1021,4 hPa 0,2 l/m 0 min 0 min 0 W/m 0,0 km/h (0 Bft) 97,96 %
24.10.2018 23:48 12,8 C 11,7 C 11,7 C 95 % 1021,4 hPa 0,0 l/m 0 min 0 min 0 W/m 0,0 km/h (0 Bft) 97,87 %
24.10.2018 23:50 12,8 C 11,7 C 11,7 C 95 % 1021,4 hPa 0,0 l/m 0 min 0 min 0 W/m 0,0 km/h (0 Bft) 91,49 %
24.10.2018 23:52 12,8 C 11,7 C 11,7 C 95 % 1021,4 hPa 0,0 l/m 0 min 0 min 0 W/m 0,0 km/h (0 Bft) 93,48 %
24.10.2018 23:54 12,8 C 11,7 C 11,7 C 95 % 1021,4 hPa 0,0 l/m 0 min 0 min 0 W/m 6,4 km/h (2 Bft) 95,74 %
24.10.2018 23:56 12,8 C 11,7 C 11,7 C 96 % 1021,4 hPa 0,0 l/m 0 min 0 min 0 W/m 3,2 km/h (1 Bft) 95,74 %
24.10.2018 23:58 12,8 C 11,7 C 11,7 C 96 % 1021,4 hPa 0,0 l/m 0 min 0 min 0 W/m 6,4 km/h (2 Bft) 95,74 %
_ Min-Zeit 00:00 00:00 00:00 14:38 03:48 - - - - 10:30 14:14
Minimum _ 12,4 C 11,7 C 11,1 C 84 % 1019,2 hPa - - - - 0,0 km/h (0 Bft) 89,36 %
_ Max-Zeit 14:38 12:14 14:32 08:44 20:32 05:46 13:38 06:38 13:40 12:38 01:00
Maximum _ 16,0 C 16,7 C 15,0 C 98 % 1022,5 hPa 0,2 l/m 4 min 4 min 469 W/m 48,3 km/h
N-NW (6 Bft)
100,00 %
Durchschnitt _ 13,8 C 13,1 C 12,6 C 92 % 1021,1 hPa #1,4 l/m #56 min. #1:36 h 96 W/m 15,7 km/h (3 Bft) 97,52 %
© 2018 W. Hausmann